GFSNW_925_rhum_054.txt.gz
RH
84 86 82 80 81 81 91 97 100 85 80 99 96 85 74 84 82 79 59 48 50 55 62 65 58 57 51 38 41 58 52 50 91 80 51 53 60 66 65 90 79 84 87 76
83 86 81 81 83 85 99 98 100 80 89 93 90 88 92 91 96 77 58 56 47 44 56 70 57 53 44 42 45 54 53 76 78 64 62 50 60 59 57 60 72 87 94 66
86 84 82 83 85 88 92 98 100 97 94 90 91 73 96 99 86 71 55 52 46 54 63 57 68 63 53 50 52 56 51 55 75 93 71 68 77 60 58 73 94 76 73 59
87 83 83 85 85 90 90 96 100 95 98 86 82 69 90 96 97 69 55 54 50 52 60 54 64 61 64 58 63 54 62 80 66 63 57 54 64 72 65 72 67 80 58 58
82 80 84 88 83 84 87 98 100 96 86 75 71 67 86 98 79 81 57 61 50 48 54 47 58 58 56 69 68 65 63 73 65 75 58 61 69 61 60 60 63 63 61 65
86 87 85 89 84 86 90 88 92 98 89 60 78 67 65 83 75 69 59 50 53 60 57 56 53 49 45 49 63 78 92 88 79 84 58 58 80 64 60 56 53 56 73 63
82 89 90 85 85 92 96 91 96 98 96 70 64 57 52 77 71 67 56 50 61 61 51 53 55 62 65 56 58 59 78 93 76 94 70 91 75 66 72 84 77 69 75 82
73 74 80 81 87 92 92 91 98 96 99 89 61 58 56 53 61 72 60 62 60 61 73 83 87 90 82 80 68 71 68 76 87 95 86 64 56 73 80 90 75 69 78 74
76 75 74 78 82 91 91 90 91 98 99 83 76 60 54 68 63 72 72 68 62 68 88 91 78 76 64 91 85 80 76 81 99 94 97 86 55 51 51 68 94 77 81 72
72 77 79 82 81 90 91 92 89 97 99 90 75 69 74 58 63 75 76 79 87 74 91 98 90 72 46 82 74 94 96 100 95 91 89 72 41 52 61 83 70 63 80 69
78 78 77 80 84 86 86 89 92 95 98 90 79 69 68 67 69 79 88 88 89 95 98 95 90 87 62 55 57 86 86 95 96 84 83 86 45 55 64 57 50 48 54 68
79 76 74 76 78 81 79 92 88 92 98 94 89 84 76 73 74 80 80 83 80 84 93 96 87 81 61 62 70 54 74 61 66 68 69 44 40 42 43 44 51 53 55 63
70 69 79 80 80 82 78 87 85 93 98 95 97 79 73 76 77 72 86 90 76 87 78 89 85 85 73 73 64 60 50 45 54 58 54 47 43 44 45 51 59 63 61 62
76 73 82 87 91 92 81 83 91 94 95 100 82 74 76 82 80 83 82 75 84 87 94 96 95 86 71 73 66 66 57 54 55 58 52 46 49 55 58 62 60 59 59 58
79 78 88 92 94 93 91 85 86 87 95 96 90 76 87 89 90 95 95 88 92 97 99 97 97 87 76 76 77 78 64 66 73 66 48 53 59 58 56 62 62 60 65 69
83 91 98 96 94 95 94 95 100 100 91 100 92 84 84 91 95 95 93 95 96 95 93 93 82 70 72 87 82 52 46 49 45 52 49 56 59 60 57 63 60 60 65 67
99 98 97 92 92 95 94 97 100 100 99 100 98 97 88 90 96 98 97 98 96 98 92 94 93 86 84 84 87 50 52 51 49 48 48 56 59 67 63 61 59 58 60 60
95 82 80 84 79 85 88 70 69 87 100 98 98 96 90 92 97 98 96 99 98 96 95 96 94 90 88 97 76 62 54 58 57 57 52 63 68 65 62 60 59 61 62 60
93 72 72 74 86 93 85 90 86 83 97 97 100 100 98 92 92 97 98 98 100 97 98 96 97 88 98 83 71 69 67 66 64 68 67 64 70 74 68 68 68 69 67 61
85 87 92 92 80 86 92 100 100 100 100 100 99 81 89 87 86 99 99 99 99 100 98 95 100 96 77 75 72 72 72 70 64 74 77 78 89 82 75 71 65 60 57 58
94 99 100 93 100 100 100 100 100 99 100 95 91 85 90 87 97 100 97 100 100 100 99 98 98 90 76 65 68 74 74 74 70 66 62 68 75 81 72 66 59 56 55 56
100 100 99 99 100 100 100 100 100 100 100 94 96 97 95 96 96 100 100 100 100 99 90 97 96 78 66 68 77 79 80 78 70 69 68 64 67 68 68 67 59 55 54 52
100 100 100 100 100 100 100 99 100 100 100 100 100 100 98 95 96 100 100 100 100 83 93 90 82 72 64 75 81 85 80 76 71 72 71 66 70 63 62 61 55 52 50 48
100 100 100 100 100 100 100 98 99 98 100 100 98 100 99 95 100 98 100 98 96 95 93 94 81 77 74 79 82 84 84 80 78 78 75 74 71 69 60 55 51 49 50 49
100 100 100 100 100 100 100 100 99 100 99 100 100 100 95 100 100 94 99 98 97 92 97 99 92 86 87 85 86 88 85 82 80 75 75 73 68 66 61 53 49 50 50 51
100 100 100 95 100 100 100 100 100 100 98 100 100 100 98 100 100 99 96 93 94 98 98 96 91 91 91 88 85 87 85 84 79 75 71 68 66 65 60 54 54 53 54 54
100 100 91 96 100 100 100 93 97 89 99 100 100 100 99 93 96 98 91 98 99 99 97 94 88 92 91 88 88 86 88 84 79 73 72 68 60 56 59 69 64 58 55 52

GFSNW_925_rhum_057.txt.gz
RH
86 88 82 79 81 81 93 97 99 84 88 99 100 95 83 81 84 93 92 84 57 70 73 72 68 73 59 48 50 62 54 70 95 85 60 56 66 80 75 91 79 92 90 80
85 88 82 82 84 86 97 99 99 81 80 98 94 84 96 89 92 96 76 66 50 54 64 78 58 59 48 46 50 62 56 79 86 75 68 61 75 68 62 67 78 92 94 71
83 84 82 85 86 89 93 97 90 95 93 95 93 90 99 96 89 89 65 55 53 72 70 79 80 67 60 54 53 59 49 59 76 88 74 72 83 72 68 74 99 86 87 64
84 87 85 88 85 88 88 97 99 94 98 86 90 96 98 100 98 77 64 58 60 75 92 75 70 69 70 66 60 58 62 83 69 72 68 64 71 67 68 83 75 84 63 63
84 90 94 87 86 79 88 100 93 97 99 86 82 80 97 100 93 84 63 65 56 58 75 61 67 66 70 74 69 65 70 77 78 78 67 69 78 70 70 68 64 72 69 68
74 76 81 85 85 91 90 88 89 99 90 79 82 78 96 89 86 69 64 61 71 77 73 63 58 56 53 65 79 86 87 86 83 93 65 70 79 71 66 63 60 57 73 55
76 76 75 78 81 93 92 96 97 98 95 90 79 63 74 91 84 82 62 68 76 63 57 58 67 68 71 64 64 73 83 88 80 96 81 92 55 68 66 73 74 61 58 54
72 77 77 78 79 87 95 96 98 97 98 87 75 62 64 77 68 74 81 72 70 66 73 82 85 88 75 72 70 74 70 84 94 99 94 71 77 80 83 87 75 72 76 63
77 76 78 80 84 84 92 94 94 98 99 91 87 75 63 76 72 72 82 74 72 74 89 84 84 76 73 88 81 80 77 86 97 94 97 96 59 57 61 68 95 74 71 76
77 77 77 78 82 86 86 92 88 99 95 90 87 81 82 60 66 81 86 85 83 75 91 93 86 79 58 91 86 95 98 99 99 92 96 81 53 61 59 90 68 63 80 79
80 77 73 78 78 83 78 80 96 97 98 95 85 85 82 78 77 88 88 84 84 92 91 91 87 89 67 69 75 88 83 88 86 81 94 90 43 59 68 58 53 49 74 68
86 73 67 73 84 73 84 81 89 94 99 95 84 78 76 83 78 86 84 84 86 82 92 96 91 91 78 76 79 71 81 77 87 80 76 49 46 48 46 50 57 53 56 71
85 80 71 77 88 88 86 82 79 93 97 94 98 89 79 78 72 74 89 91 78 84 82 91 90 98 83 89 81 70 59 58 64 63 54 51 45 47 58 63 63 65 63 63
85 80 80 78 88 92 90 86 80 89 96 100 83 76 79 83 79 80 78 76 82 85 88 94 97 93 78 85 78 74 62 55 56 59 55 53 53 58 60 62 61 61 61 62
84 88 87 89 95 95 95 89 79 76 95 99 93 81 88 87 87 92 89 82 91 97 99 94 86 84 80 87 86 89 67 66 72 73 56 60 60 60 59 64 62 62 66 76
85 95 81 93 94 94 94 96 99 92 91 100 99 82 91 92 94 96 98 97 95 96 95 94 88 73 82 94 84 66 63 60 58 59 51 56 60 62 60 63 63 65 72 75
90 98 98 94 92 97 92 98 100 100 98 99 99 98 90 90 94 97 98 98 97 96 94 90 86 89 82 85 94 59 59 55 53 52 53 60 65 68 63 66 67 64 66 67
88 86 71 76 86 92 96 65 71 89 100 98 96 98 94 92 97 98 94 97 97 97 93 90 93 92 88 97 81 76 68 62 69 69 66 67 72 66 64 64 64 68 69 66
85 89 74 86 82 97 87 89 82 81 98 100 100 100 96 94 93 96 99 95 100 95 96 89 96 92 94 85 83 81 81 75 71 70 70 72 70 73 70 68 69 72 69 63
84 87 89 84 83 87 93 100 99 99 98 99 99 88 93 94 91 99 98 97 100 100 99 97 100 97 89 71 77 84 83 84 83 76 74 77 86 83 77 75 70 69 64 61
94 99 100 96 98 100 99 100 100 99 100 98 96 90 90 87 97 99 97 100 100 100 100 100 100 100 75 69 81 82 86 86 85 82 75 68 78 86 80 76 67 60 59 62
96 99 99 100 100 100 98 100 100 100 99 96 96 96 96 95 95 100 100 100 100 99 97 100 100 95 68 75 83 84 88 83 83 77 73 71 68 74 67 63 61 59 55 52
99 100 100 100 100 100 100 99 100 100 100 100 100 100 97 95 96 100 100 100 100 95 100 95 90 77 75 80 83 87 84 81 83 82 77 71 80 72 71 68 58 56 53 50
100 100 99 99 100 99 99 98 98 99 100 100 100 100 99 96 100 98 100 99 99 98 96 95 95 89 86 86 83 88 88 85 84 83 80 75 71 70 69 70 64 55 54 53
100 100 99 99 99 100 100 100 100 100 99 100 100 99 97 100 100 95 99 98 98 94 100 100 96 92 92 92 88 90 91 88 84 81 80 74 68 64 59 56 54 54 53 52
100 100 99 97 100 100 100 100 100 100 99 100 100 100 99 99 100 98 97 98 92 99 98 98 95 92 91 91 89 91 92 90 85 79 74 70 67 64 59 54 53 53 54 55
99 99 95 98 98 100 100 98 99 91 98 100 100 99 92 94 93 96 94 97 98 97 97 98 88 91 92 90 91 93 94 91 87 82 78 70 64 59 59 69 65 58 57 55

GFSNW_925_rhum_060.txt.gz
RH
79 88 82 79 83 87 81 93 99 76 79 98 94 99 84 77 94 94 99 94 70 79 72 70 71 74 64 53 55 63 55 80 96 79 63 61 68 77 75 92 78 94 91 79
85 87 87 84 83 93 96 93 96 73 77 96 97 85 82 94 98 98 90 79 54 58 67 76 64 65 50 54 53 62 56 78 94 79 67 64 74 74 71 70 83 94 90 70
87 88 91 86 87 96 89 96 95 91 94 94 95 96 100 99 85 96 80 60 57 65 83 78 73 72 69 55 53 60 51 67 71 84 71 80 88 79 71 80 96 90 85 73
75 78 84 87 88 88 87 95 98 96 97 88 88 96 100 100 99 79 69 63 69 83 87 73 81 76 70 65 63 58 61 74 73 71 72 68 73 74 81 87 78 84 67 66
74 78 78 83 88 78 87 99 99 95 98 94 94 85 100 100 92 86 84 86 77 73 78 66 76 73 74 69 65 68 67 85 81 81 69 73 80 75 75 77 76 78 72 72
72 73 78 79 85 83 90 92 87 99 90 93 87 90 97 92 84 77 74 70 75 80 82 66 63 58 61 66 76 85 74 78 79 97 71 74 78 73 71 68 65 62 77 60
76 69 78 79 83 88 94 92 98 98 95 88 83 80 86 92 83 83 75 71 75 64 57 58 59 64 70 67 75 70 85 84 78 96 82 96 54 59 58 65 58 55 54 48
79 77 77 81 84 88 90 94 97 97 98 84 86 86 78 75 72 81 86 81 77 64 69 78 76 79 75 74 73 70 68 82 94 97 95 74 64 80 85 90 69 68 73 65
78 77 77 78 81 88 85 92 91 99 100 88 91 97 75 79 78 83 82 74 76 74 87 82 75 83 68 82 87 79 81 81 99 91 91 96 58 61 66 64 91 64 74 71
82 82 77 74 80 82 85 78 85 99 99 87 89 96 88 68 77 87 86 83 83 72 90 86 74 75 64 91 85 91 100 100 98 94 94 81 58 54 63 92 68 56 72 74
82 89 76 68 75 83 82 78 84 99 98 94 89 80 96 87 81 85 85 82 83 89 92 81 84 88 75 79 76 90 84 96 96 92 94 93 48 61 70 61 55 53 60 78
85 86 85 74 77 85 86 83 92 84 99 94 90 86 80 81 86 82 85 80 85 84 87 95 91 88 89 80 90 76 84 74 80 79 74 52 44 50 44 49 59 60 61 62
85 83 86 78 77 84 91 87 84 84 97 93 97 89 75 74 79 83 86 90 77 85 80 83 90 96 89 84 89 78 70 64 71 70 56 58 52 48 47 61 65 65 64 65
87 83 85 88 86 87 94 93 84 91 98 100 85 82 80 83 82 82 80 75 81 83 87 92 91 94 80 79 78 74 63 64 67 66 56 52 56 55 58 62 60 60 62 64
83 90 89 93 81 89 96 92 86 83 90 100 93 79 79 89 87 89 86 81 89 95 98 98 96 86 82 87 89 92 75 70 70 69 52 57 62 57 60 64 60 61 66 76
88 86 93 96 87 89 97 92 90 71 82 99 98 79 91 93 94 96 97 94 91 95 96 95 91 73 78 95 91 56 69 65 62 59 54 62 56 60 60 60 62 65 70 76
88 93 96 85 87 98 88 97 100 97 85 98 99 96 90 90 92 96 98 97 98 98 95 98 89 86 84 88 94 64 77 76 65 64 63 62 64 65 61 63 68 67 70 73
90 93 71 71 81 92 95 61 69 99 99 98 100 98 88 93 98 97 93 96 98 99 94 93 90 90 91 99 77 79 80 77 71 76 74 72 70 66 66 67 68 71 75 72
90 90 82 87 79 97 82 85 91 81 98 100 100 100 96 94 94 94 99 96 99 93 98 93 98 91 100 87 75 78 79 84 84 84 76 70 69 71 69 68 71 74 74 70
91 81 88 91 84 83 100 99 97 99 99 99 99 88 94 95 93 96 98 98 100 99 98 97 100 98 84 72 77 84 92 92 92 94 88 75 84 83 77 74 71 70 70 68
97 99 98 97 99 100 99 100 99 97 100 98 98 94 90 88 96 98 98 100 100 99 100 100 100 100 91 72 86 89 91 92 92 91 88 83 76 79 85 78 73 72 65 64
89 98 99 99 100 100 98 100 99 96 98 96 95 93 92 94 94 100 100 100 100 99 99 100 99 93 78 85 89 81 85 81 81 83 83 78 74 74 75 70 66 62 64 70
100 100 100 100 100 99 97 95 97 99 99 100 100 100 98 97 97 100 100 100 99 99 100 99 95 85 83 88 86 85 92 82 80 83 81 76 82 75 70 67 66 67 67 73
98 100 99 99 99 99 98 97 97 99 100 100 99 100 99 96 100 99 100 99 100 99 98 98 97 90 88 84 83 86 99 98 86 82 82 78 77 82 86 77 70 67 72 80
100 100 98 99 99 100 100 100 100 100 99 100 100 98 96 100 100 98 99 100 98 95 99 99 95 89 88 88 87 89 91 94 87 81 82 77 68 71 72 74 77 66 59 54
100 100 99 97 100 99 100 100 100 99 99 100 99 100 100 98 100 100 96 98 95 98 98 98 96 90 88 91 90 91 91 91 88 83 79 74 69 64 59 60 63 70 61 57
94 99 96 99 99 100 100 99 99 90 99 100 100 99 94 94 98 98 96 96 97 98 97 97 89 91 93 94 93 91 94 92 91 89 82 78 69 61 59 66 63 56 58 58

GFSNW_925_rhum_063.txt.gz
RH
83 87 85 85 81 94 89 89 95 68 77 96 87 100 90 86 96 89 96 93 74 80 72 71 72 72 64 53 56 63 60 83 97 84 64 64 69 78 80 89 84 94 94 77
76 76 77 82 84 94 98 91 94 74 75 97 97 85 97 96 98 97 92 71 61 61 66 72 66 64 56 54 55 63 58 80 96 80 67 67 74 75 74 74 83 96 92 69
74 78 77 83 85 95 93 97 93 91 91 94 97 94 100 100 89 92 93 68 62 73 83 74 75 71 73 58 50 58 54 69 71 85 72 79 88 81 76 80 96 88 87 73
76 71 80 81 86 91 86 88 94 93 98 91 97 95 100 100 90 87 74 71 77 78 84 75 86 78 70 66 66 61 60 74 73 68 69 70 76 78 83 87 76 83 69 70
80 70 78 80 86 78 86 94 98 96 97 92 96 93 98 95 79 82 85 86 80 74 73 68 82 76 71 70 67 70 66 89 78 75 68 75 81 76 77 81 77 78 73 76
84 78 75 81 85 84 92 86 92 99 91 90 88 96 95 95 86 84 74 77 76 81 84 67 63 63 68 66 74 83 69 79 81 96 75 75 76 76 75 72 77 71 84 64
87 78 78 81 82 86 90 89 99 98 92 88 93 84 90 90 81 90 78 79 75 65 58 58 59 65 71 74 76 64 72 75 79 95 79 93 53 54 59 67 61 58 54 49
85 80 75 76 80 85 89 87 99 98 95 82 89 93 81 77 74 86 87 84 80 76 66 75 77 79 75 79 78 72 65 81 92 96 90 72 59 83 83 74 65 60 55 53
81 84 84 75 74 84 86 84 92 99 100 90 89 90 91 81 85 87 82 73 77 71 85 79 75 92 71 85 88 81 82 90 88 98 94 95 55 64 66 64 89 60 71 69
84 82 92 78 70 78 85 76 84 97 99 85 91 90 99 79 81 90 89 86 84 71 86 88 86 82 67 90 83 94 99 100 98 93 96 79 57 60 63 90 75 54 61 65
92 84 85 89 76 78 89 77 81 99 84 88 87 81 91 94 87 87 83 80 80 89 90 85 78 83 78 80 78 87 82 95 91 90 92 90 48 64 70 61 55 54 59 63
90 89 83 86 86 78 88 87 88 81 98 93 90 89 85 85 90 93 85 77 83 86 90 94 92 89 92 82 87 78 88 78 83 81 77 52 46 66 52 47 52 66 72 72
90 90 87 84 85 82 82 82 86 83 96 93 96 94 73 82 85 77 90 87 78 84 78 91 92 94 91 83 80 81 76 69 75 68 55 62 56 52 50 48 63 65 65 68
87 84 83 91 86 84 88 87 86 85 98 100 91 81 86 90 89 90 84 74 81 84 87 90 88 87 78 88 80 76 68 67 72 74 62 56 54 56 57 60 60 60 62 64
89 85 90 88 91 85 90 95 92 89 95 100 99 83 72 83 87 89 89 82 86 93 95 96 97 88 89 90 90 93 78 73 74 75 53 52 56 56 58 61 62 59 64 73
85 88 89 91 95 87 98 95 78 82 93 100 100 81 92 95 94 95 95 93 90 93 95 94 91 75 80 96 93 70 71 68 65 64 56 63 64 61 60 60 61 64 69 76
89 89 93 93 91 96 85 90 100 97 84 99 98 97 90 91 92 96 97 97 99 99 97 98 93 91 85 92 97 74 88 86 76 76 74 67 64 72 62 61 68 69 73 78
90 88 97 71 87 95 98 77 82 99 94 97 100 98 86 92 98 97 94 94 99 99 93 93 95 96 95 99 79 71 76 74 77 80 83 80 77 64 65 67 69 72 77 77
90 79 92 92 81 96 87 85 99 97 100 96 100 100 91 95 95 93 99 95 99 94 98 94 97 96 99 94 85 82 83 90 87 88 82 82 80 78 67 66 70 74 77 77
96 86 88 88 81 72 88 99 98 99 98 100 100 88 95 94 94 97 97 99 99 100 98 97 99 100 91 74 76 81 88 91 96 98 93 89 90 85 81 77 72 72 74 74
98 98 98 98 93 98 98 100 100 100 98 96 97 93 92 91 94 96 98 100 100 99 99 100 98 96 93 76 85 90 81 86 82 85 91 92 92 87 84 84 75 74 72 73
77 93 98 100 100 99 100 100 98 100 97 94 98 95 90 96 94 100 100 100 100 99 100 100 99 93 80 90 92 91 86 96 84 80 82 87 83 79 80 76 72 70 65 68
97 99 100 100 100 98 99 96 100 99 100 100 99 100 98 98 97 100 100 99 99 100 100 98 97 87 81 86 91 90 89 99 89 82 78 81 86 81 71 67 64 66 71 75
98 100 98 99 99 99 98 94 96 98 100 100 99 100 99 97 100 99 100 99 100 99 98 98 96 87 86 83 83 90 92 100 100 92 83 80 78 90 90 74 74 76 81 89
100 100 99 99 100 100 100 100 100 99 99 100 99 100 96 100 100 99 99 99 98 95 95 98 93 87 86 88 88 90 92 93 98 97 85 82 76 72 87 84 83 72 84 88
100 99 99 98 99 100 100 100 100 99 99 100 99 100 100 98 100 100 97 99 94 95 100 99 95 89 88 90 90 90 88 90 89 87 86 81 75 75 68 72 83 88 71 63
95 99 98 99 100 99 100 99 98 90 98 99 100 99 93 97 99 98 94 96 96 99 99 98 90 91 95 94 94 92 93 92 94 91 90 84 73 65 61 65 65 67 81 82

GFSNW_925_rhum_066.txt.gz
RH
82 75 78 79 82 92 87 84 95 66 75 91 91 98 100 97 97 88 96 90 75 78 71 73 76 73 65 54 53 69 66 78 87 84 64 64 68 77 76 87 88 95 93 72
84 76 79 80 84 94 97 96 94 68 73 98 97 89 94 95 96 93 91 68 65 62 70 72 68 65 59 53 54 62 61 82 91 84 67 69 76 77 72 75 82 98 90 60
86 78 76 80 86 92 89 97 96 91 91 92 98 96 97 96 82 88 84 68 68 75 82 75 73 78 72 54 54 62 57 72 72 86 70 80 89 84 74 77 92 88 89 65
86 82 76 82 86 78 75 91 89 96 98 89 99 99 99 100 91 83 76 76 77 73 79 78 87 76 70 66 64 63 60 80 73 67 69 73 76 83 86 86 78 84 68 78
87 84 79 83 85 70 85 99 99 96 97 90 90 92 95 90 85 86 89 87 79 73 75 75 81 77 72 66 69 67 66 92 71 73 70 77 82 78 82 81 78 80 76 78
91 83 80 78 84 75 93 86 92 99 86 88 92 98 94 89 74 76 80 79 77 82 84 72 68 72 72 68 74 79 71 79 79 89 74 77 78 78 80 82 80 74 88 64
87 85 81 79 80 85 85 85 98 98 92 90 94 92 87 85 85 84 84 80 77 71 61 60 58 69 76 74 73 63 70 74 82 93 76 81 50 52 60 68 63 68 58 52
92 82 88 84 76 85 84 79 99 98 99 82 83 91 87 75 77 89 90 86 79 79 61 75 74 79 70 79 84 76 61 80 93 94 96 69 60 83 76 72 65 58 59 53
93 88 85 90 78 75 84 78 85 98 99 86 88 91 93 90 88 84 81 72 76 67 83 75 74 91 72 89 93 81 88 85 84 98 98 90 53 64 67 68 93 61 65 68
92 94 87 86 88 77 83 85 84 92 100 74 89 95 99 91 85 90 90 90 83 68 83 89 87 84 69 90 82 96 97 95 94 97 98 82 57 58 62 84 82 59 56 58
90 91 89 89 87 86 81 86 82 99 98 87 82 80 92 92 93 92 82 77 78 87 89 84 81 82 82 81 76 85 84 94 89 81 96 87 47 59 69 60 47 50 55 64
89 94 89 91 88 91 83 81 79 88 95 92 84 84 81 80 82 98 88 78 83 86 93 94 94 91 93 84 86 80 90 76 87 81 79 52 45 63 56 50 50 54 69 69
88 87 87 85 88 87 88 81 80 87 96 91 92 94 76 74 82 79 99 88 81 83 81 91 93 87 91 82 75 83 77 72 77 69 57 62 57 55 55 51 52 59 64 66
86 86 86 86 94 90 92 94 85 86 95 100 88 80 84 94 85 85 85 82 83 85 88 89 88 82 83 87 85 84 76 72 72 77 65 58 54 53 55 59 60 61 61 64
88 87 88 88 92 94 92 93 89 82 90 99 98 92 73 79 93 97 95 86 85 91 90 94 92 88 86 93 92 95 80 78 82 83 57 56 60 53 60 63 64 59 63 68
80 83 90 90 94 90 94 99 89 94 92 100 100 84 87 98 96 96 97 94 90 92 91 90 90 77 83 95 96 80 79 79 77 73 78 70 67 69 64 64 61 62 68 74
85 84 90 94 96 99 92 88 98 100 94 100 100 99 86 94 95 98 98 98 97 99 97 98 91 90 84 93 89 86 83 76 81 79 78 74 77 82 78 68 69 70 73 79
88 91 89 99 77 99 98 84 92 99 94 97 100 99 88 94 99 97 95 94 99 99 95 94 97 94 95 99 82 77 81 84 81 82 82 87 87 82 71 67 70 69 76 79
94 91 82 88 89 97 87 84 93 99 99 100 98 99 93 95 95 94 99 94 100 95 99 84 95 90 98 90 85 82 88 92 91 88 87 83 86 86 82 68 68 74 78 78
86 89 88 75 81 86 85 99 99 99 98 99 99 91 96 95 96 98 99 99 99 99 95 96 99 94 96 81 77 81 84 85 91 98 93 93 95 91 89 87 82 78 75 76
83 98 100 99 97 94 98 100 100 100 100 98 88 95 93 95 98 97 98 100 100 99 99 100 99 100 95 78 83 84 85 90 95 84 82 83 89 96 90 86 86 80 75 76
74 90 96 99 100 100 100 99 100 100 97 98 98 97 93 96 94 100 100 100 100 98 100 100 99 97 83 85 89 91 90 93 97 86 83 78 80 89 89 84 81 72 68 69
94 100 100 100 99 99 100 98 99 100 100 100 100 100 98 99 97 100 100 99 98 100 100 98 96 94 89 83 86 92 90 98 97 95 86 80 81 89 83 68 68 68 68 69
100 100 98 99 99 99 99 97 99 99 100 100 99 100 99 98 100 99 100 99 100 99 99 95 98 90 85 84 87 90 94 100 100 100 99 87 82 87 90 80 72 73 78 84
100 100 98 99 97 100 100 100 99 99 99 100 99 100 96 100 100 99 99 99 97 94 92 98 92 90 92 95 92 92 89 93 97 98 98 99 95 88 82 87 82 77 86 91
100 100 100 97 99 99 100 100 100 99 99 99 99 99 100 99 99 99 98 99 97 92 100 99 95 90 91 87 90 91 89 89 91 91 88 84 83 88 92 92 92 89 77 86
95 99 99 99 99 99 100 99 98 90 99 99 100 100 91 99 99 99 93 96 97 98 100 99 91 92 92 93 91 88 91 87 94 97 96 92 84 76 73 78 75 76 90 87

GFSNW_925_rhum_069.txt.gz
RH
91 85 78 80 82 92 89 88 87 56 66 90 97 99 100 96 96 88 93 87 73 79 75 78 76 76 68 55 54 74 69 78 97 89 69 62 64 74 70 82 84 91 82 54
91 88 80 80 83 91 100 92 91 62 71 98 93 86 83 92 81 82 88 70 63 64 72 75 69 68 62 55 56 63 61 79 95 84 68 70 75 76 69 72 80 97 78 46
89 90 83 78 84 91 91 94 94 92 91 91 100 99 97 95 81 86 82 71 66 71 80 75 74 80 70 58 66 61 56 72 70 80 65 80 91 84 71 74 88 82 83 60
93 90 84 80 84 79 84 94 95 96 98 97 99 99 99 100 96 82 78 75 82 69 76 80 87 75 68 68 67 62 60 84 72 73 77 75 78 86 80 83 75 76 62 71
93 89 84 81 82 70 81 95 98 98 98 91 92 97 95 90 86 87 88 86 83 78 84 79 82 76 69 62 67 66 67 92 68 74 70 76 82 78 82 80 76 75 75 73
94 90 87 85 79 76 89 85 89 99 86 90 96 100 98 84 78 74 87 78 80 84 85 76 67 67 72 70 70 76 71 80 73 84 73 74 77 79 83 82 79 71 85 65
93 91 86 90 78 81 83 84 96 97 91 92 95 99 90 86 87 85 86 83 78 71 67 63 59 72 77 75 77 62 72 78 78 86 70 80 50 56 64 70 65 70 61 55
89 94 89 87 85 79 81 91 99 98 96 87 87 96 88 77 76 92 89 86 83 83 63 74 76 81 70 79 84 84 62 79 94 87 92 64 74 79 74 74 70 57 63 58
91 94 90 86 90 84 74 77 82 95 100 86 86 96 94 97 92 81 79 73 75 64 78 72 76 91 73 80 90 78 79 74 80 98 92 81 54 67 67 72 98 65 56 70
90 91 92 89 90 91 82 76 85 88 99 76 85 97 98 94 89 93 89 92 85 66 80 87 87 84 70 89 80 87 95 86 92 95 98 78 58 52 66 81 83 62 53 53
91 90 95 91 92 91 89 80 78 90 98 88 78 76 89 88 94 95 85 77 78 84 87 82 84 84 83 81 75 85 90 90 86 75 98 72 48 60 72 60 50 51 49 59
92 91 89 89 89 89 93 83 76 91 96 92 78 69 71 81 79 96 93 80 85 86 91 93 94 91 93 84 86 81 89 76 86 80 75 52 46 61 54 56 53 47 58 64
91 88 86 88 88 91 92 95 86 83 97 93 92 86 74 78 73 74 98 92 84 84 78 90 92 83 90 84 79 83 78 74 79 73 60 64 56 54 56 53 55 51 61 63
89 86 87 89 89 88 93 99 92 80 91 98 82 74 82 87 84 82 84 93 85 86 89 88 88 82 84 82 81 86 78 77 77 78 68 60 58 55 57 58 60 61 61 62
91 90 82 84 90 93 94 94 94 89 81 99 95 81 72 81 94 92 91 97 87 91 92 95 91 88 88 94 94 97 84 79 84 84 64 63 64 61 69 71 69 65 64 67
93 89 80 78 90 94 95 100 93 94 84 100 100 89 87 99 100 100 99 96 92 92 91 88 88 74 79 97 96 78 78 82 78 76 83 85 81 75 79 75 67 67 69 73
92 79 83 89 98 100 96 93 96 99 94 100 100 100 85 95 97 98 99 99 97 95 92 97 89 90 84 91 99 75 86 80 78 79 75 76 77 83 87 77 72 70 72 78
93 87 90 89 97 92 100 99 93 95 98 100 99 100 93 95 99 98 97 98 99 97 94 94 92 92 86 98 84 81 84 87 84 87 87 88 87 90 85 70 73 69 76 77
90 77 89 89 88 95 91 80 95 99 99 100 100 100 98 96 94 96 98 94 93 93 95 92 95 97 98 84 83 80 83 88 94 93 91 88 87 87 86 84 76 75 80 77
62 98 96 99 82 99 89 96 100 100 100 100 100 92 91 97 96 100 97 99 99 100 94 96 99 100 89 81 77 81 82 83 92 98 94 90 93 94 91 90 90 87 84 78
58 96 100 98 100 98 100 100 100 100 100 98 97 94 95 94 98 95 95 100 99 99 98 100 98 99 98 78 82 82 84 84 92 95 89 89 88 89 91 93 87 87 84 79
78 85 96 98 99 100 100 99 100 100 98 98 98 96 93 96 94 99 99 99 100 96 100 100 98 97 84 84 86 89 92 88 96 93 90 83 80 81 87 94 90 83 77 71
85 100 100 100 100 99 99 98 99 100 100 100 100 100 98 100 99 100 100 99 99 100 99 96 92 94 89 89 89 90 86 97 96 96 97 92 86 84 91 80 69 70 69 70
100 100 98 99 99 99 99 99 99 100 100 100 99 100 99 99 100 99 100 99 100 98 98 95 98 92 93 97 98 95 96 98 98 96 98 98 98 93 91 92 85 82 75 76
99 100 98 99 99 100 100 100 100 99 99 100 98 100 97 100 100 99 99 99 98 94 95 98 97 92 97 98 98 98 97 97 98 98 98 99 99 99 99 99 98 89 89 88
100 99 100 97 99 99 100 100 100 99 99 99 98 98 99 99 99 99 95 98 97 90 98 97 98 98 96 89 90 90 86 82 93 97 98 92 85 83 92 98 99 99 97 93
94 99 97 99 99 99 100 100 100 98 100 100 99 99 98 98 99 99 94 97 95 98 99 98 91 91 89 89 83 84 83 87 91 94 95 98 90 82 80 82 78 81 98 100

GFSNW_925_rhum_072.txt.gz
RH
92 90 85 81 83 91 91 83 82 61 61 84 88 97 98 96 82 80 87 79 60 63 58 61 62 68 77 50 50 56 56 57 85 79 60 52 54 56 49 66 75 72 66 40
94 92 85 83 83 90 100 89 82 59 78 100 97 79 82 85 78 76 74 62 55 55 58 64 58 60 53 49 50 49 47 62 84 75 60 60 62 60 54 56 65 82 59 39
93 90 86 86 82 86 94 85 99 80 78 92 99 95 91 89 73 72 68 64 53 53 56 54 65 61 59 57 55 60 44 53 56 56 57 63 83 67 54 63 75 62 53 41
91 93 87 87 81 62 84 83 90 88 100 89 98 94 95 93 89 68 62 58 64 57 59 58 66 63 57 53 57 50 47 65 63 65 62 64 70 72 65 86 56 54 47 42
89 94 88 90 82 58 78 95 94 93 93 79 91 96 96 84 72 76 72 70 67 58 66 68 62 59 56 54 50 51 51 67 59 67 62 68 74 66 67 64 60 56 53 51
90 95 90 90 84 65 84 86 85 96 76 79 88 98 100 82 70 70 72 69 64 66 72 67 60 55 54 54 53 57 55 59 55 77 63 65 68 61 66 65 60 55 65 45
90 92 95 88 88 76 81 89 98 92 83 86 99 99 96 87 80 74 73 66 63 64 62 58 50 53 55 53 57 50 56 56 59 64 57 62 51 52 54 59 53 55 51 47
91 93 93 92 89 87 72 86 91 96 88 77 89 97 95 81 68 75 75 72 71 67 57 60 63 60 57 66 67 58 48 56 71 67 60 53 71 65 58 64 71 49 52 47
82 89 92 93 93 93 80 76 82 85 99 77 82 88 96 98 82 66 70 64 63 57 63 61 70 74 60 63 74 62 57 50 57 77 71 61 65 64 61 66 92 51 48 54
93 93 88 91 90 93 92 79 79 88 86 66 75 95 96 90 89 84 76 78 70 61 64 69 68 66 61 67 66 71 76 74 74 74 78 52 42 47 59 75 75 60 52 51
95 94 92 91 89 92 94 85 78 88 80 67 62 65 81 82 89 97 83 74 71 70 70 67 66 65 65 66 62 71 70 77 76 67 78 66 41 54 72 53 46 43 49 50
95 93 89 88 91 90 93 95 80 83 92 69 70 63 66 72 72 87 83 84 80 75 74 79 76 70 73 66 67 65 70 57 58 58 50 43 42 50 45 45 44 43 46 53
91 88 87 89 91 91 91 96 91 89 95 74 78 66 61 65 59 60 88 85 80 77 68 74 74 71 70 66 62 66 63 58 60 62 52 50 44 44 46 47 50 47 47 55
90 91 90 88 78 88 90 98 90 90 85 90 62 68 74 78 86 76 69 86 89 82 82 81 79 70 68 65 66 65 58 62 61 58 50 48 49 51 58 56 57 57 56 56
86 91 92 85 78 84 91 90 89 90 91 79 75 60 61 69 91 87 85 81 90 93 91 88 82 81 74 78 78 74 62 57 59 52 53 54 51 62 64 63 63 60 60 60
85 85 92 78 82 91 99 86 88 94 98 98 87 67 79 90 98 96 92 90 94 90 85 79 79 68 65 78 75 48 59 60 57 59 70 66 64 66 63 66 64 61 62 64
93 95 94 91 92 96 98 91 89 92 100 97 95 98 83 86 95 98 99 98 96 90 87 87 78 77 75 77 73 51 65 67 66 70 71 71 72 71 67 69 63 63 62 65
95 96 93 94 93 98 100 97 86 97 99 98 100 97 99 98 97 99 91 99 98 90 86 92 87 87 86 99 79 70 72 69 68 75 74 74 73 73 69 73 66 65 63 61
87 73 88 96 94 95 98 94 94 96 99 100 100 100 99 88 97 96 97 86 94 85 96 90 89 93 98 80 77 72 76 78 81 81 80 74 76 76 76 80 82 79 71 70
52 87 97 97 98 100 91 100 99 100 100 99 100 96 99 92 79 93 88 94 94 100 96 91 100 97 84 75 74 76 77 74 82 96 90 87 91 86 80 78 75 74 74 74
56 80 96 95 99 99 100 100 100 99 100 99 98 96 99 96 98 99 90 100 100 100 90 100 99 93 97 75 76 76 78 80 82 88 89 85 82 80 76 74 73 77 77 77
90 90 92 95 100 100 100 99 100 100 97 98 94 82 82 97 96 98 99 98 100 94 98 100 98 94 78 74 79 81 80 80 85 85 86 84 81 78 79 88 84 70 69 75
85 99 100 100 100 100 98 96 100 100 100 100 100 100 94 97 97 100 100 100 98 99 100 88 80 83 78 79 82 86 87 84 81 82 88 94 92 88 89 87 83 70 66 68
94 100 99 100 98 98 100 100 100 100 100 100 99 100 99 99 100 100 100 99 100 98 94 89 91 84 81 87 93 95 95 95 94 93 96 96 97 98 99 99 95 87 83 81
93 100 99 95 97 99 100 100 100 100 100 99 98 99 96 100 100 99 100 100 96 88 90 100 84 84 86 92 96 96 96 97 98 98 98 98 99 98 99 99 99 100 99 97
98 96 98 91 96 95 98 100 100 100 100 99 97 100 100 100 100 99 99 95 92 93 100 97 94 96 95 93 81 76 71 74 84 87 93 96 96 97 98 96 96 99 99 99
96 95 90 95 97 97 96 100 100 99 100 100 100 99 97 99 97 97 89 93 85 89 90 96 97 95 81 74 68 67 73 76 79 80 86 91 97 94 89 88 90 94 87 97

GFSNW_925_rhum_075.txt.gz
RH
90 89 87 86 83 86 79 70 83 60 80 83 79 90 86 85 72 73 79 68 50 50 47 53 56 63 53 43 41 49 47 54 90 77 58 64 64 67 62 74 67 62 69 44
89 92 88 87 82 84 89 69 69 58 58 98 88 66 70 72 71 62 61 53 49 45 47 55 53 54 46 45 46 43 40 55 78 73 55 51 55 50 46 47 61 87 63 43
89 93 90 89 82 78 86 70 96 71 64 89 96 95 77 74 62 58 54 50 42 42 46 43 55 54 54 47 44 55 38 43 51 56 58 54 70 57 49 56 75 56 42 41
89 91 91 89 81 65 74 69 86 88 98 81 86 86 78 81 66 52 48 47 48 47 48 48 56 51 48 44 47 40 37 55 54 53 52 53 60 62 54 86 49 50 38 35
91 90 95 90 85 58 64 92 97 82 89 69 77 85 81 92 68 63 59 59 50 47 58 59 49 50 46 48 41 43 41 56 50 57 54 58 67 56 55 54 49 47 43 41
89 91 94 92 88 66 56 70 80 94 73 65 79 99 99 93 72 58 60 62 53 61 68 55 49 44 42 45 45 47 45 47 49 73 53 58 69 55 56 52 49 46 52 38
87 89 92 94 92 80 71 68 94 85 79 75 77 98 96 93 80 67 59 57 53 56 52 50 41 42 43 44 44 42 48 46 50 51 51 70 53 46 46 51 46 44 42 41
87 79 86 95 94 92 76 80 71 81 82 64 69 89 96 94 66 64 62 62 58 52 54 56 57 54 52 54 50 44 38 45 57 62 47 45 58 58 53 58 63 45 46 45
93 89 88 88 95 95 80 85 88 64 84 73 56 78 94 99 94 63 60 54 51 50 52 55 64 64 51 58 58 49 44 40 53 62 61 51 62 60 52 60 79 45 46 53
95 94 93 84 92 94 90 82 86 76 72 46 57 82 95 96 96 87 65 70 61 53 56 61 58 53 51 57 57 59 58 58 63 58 66 45 44 41 48 72 83 49 49 53
90 95 93 89 90 88 90 77 93 85 78 60 52 48 62 72 84 99 83 74 66 62 63 61 55 53 52 56 53 58 57 62 62 58 65 65 41 57 64 55 47 47 44 51
91 95 81 89 91 89 89 78 84 81 96 70 61 61 60 52 56 80 75 89 77 70 69 61 60 56 58 54 56 53 60 50 52 51 50 42 38 42 38 38 43 44 42 48
95 92 87 91 91 84 85 84 83 94 94 66 58 50 50 58 54 60 70 76 81 72 65 69 62 64 58 56 52 55 51 48 52 55 44 41 40 42 46 46 51 46 44 49
90 90 92 93 91 84 81 83 83 92 84 88 52 44 57 64 71 60 50 64 81 83 79 83 73 64 56 56 59 58 51 53 52 51 44 41 40 50 54 53 52 54 52 52
95 92 90 88 83 76 84 92 87 88 86 77 66 55 48 51 47 80 72 65 66 90 91 82 74 68 61 59 64 57 49 46 54 45 47 48 47 54 58 57 58 55 57 56
91 97 89 90 83 88 97 97 89 85 93 100 86 47 54 69 70 88 75 76 80 93 89 84 71 63 59 62 64 42 42 43 41 46 56 57 57 58 56 59 60 56 57 56
95 96 97 97 96 92 98 95 94 90 98 96 81 74 66 68 84 93 95 88 93 95 85 77 66 67 69 66 71 42 44 46 55 61 62 63 67 67 63 63 61 59 57 56
86 95 96 87 92 98 98 92 99 96 99 92 97 76 96 80 92 87 93 97 94 95 90 80 71 71 83 94 65 55 56 59 61 61 64 66 63 64 64 63 63 66 62 57
88 88 80 94 91 90 92 96 98 96 98 96 97 99 100 87 94 81 97 84 97 88 94 76 73 72 93 74 68 60 62 70 74 74 75 75 70 68 68 69 70 71 69 63
73 83 89 84 96 97 98 99 99 99 98 100 99 72 99 98 94 96 92 89 94 100 83 83 98 98 64 70 71 71 72 72 74 81 80 82 84 80 76 72 65 65 68 67
86 65 77 95 87 97 99 99 100 95 99 91 86 78 98 94 98 99 85 100 96 98 85 93 100 84 89 72 74 71 72 73 75 79 80 80 81 81 74 70 66 71 74 73
91 92 93 95 89 99 100 96 98 99 82 95 97 94 94 97 94 99 99 100 100 97 97 100 93 86 77 70 71 74 73 72 74 74 77 77 80 79 76 76 82 80 70 63
95 97 100 100 100 100 97 96 98 100 100 100 100 100 88 95 98 99 100 100 98 98 99 85 75 80 70 69 74 83 81 80 76 78 81 85 88 91 93 91 91 87 78 65
84 95 85 95 96 98 100 100 100 100 100 100 100 100 100 98 100 100 100 100 100 100 94 85 94 83 72 78 88 89 94 96 94 94 95 96 98 98 98 98 99 99 93 92
88 94 87 88 89 95 100 100 100 100 100 100 100 100 100 100 100 99 97 100 96 86 88 100 100 74 82 91 92 92 93 97 99 100 100 99 99 99 98 99 99 99 100 100
89 85 89 77 91 92 88 99 99 100 99 100 100 100 100 100 100 98 100 96 93 100 100 100 100 99 87 86 74 64 60 64 70 78 88 88 88 89 90 96 98 99 99 99
95 90 84 88 87 89 84 86 92 96 100 100 100 99 100 100 99 91 97 97 96 89 87 100 100 99 96 65 61 58 61 62 64 67 73 76 84 86 81 84 95 91 93 98

GFSNW_925_rhum_078.txt.gz
RH
91 88 89 88 84 84 76 72 96 57 63 92 81 93 72 72 75 73 80 72 51 55 48 57 62 65 56 45 46 62 75 92 100 100 81 69 64 82 76 95 87 82 88 68
91 89 90 90 84 86 95 72 76 58 56 93 95 68 64 64 66 64 58 52 50 44 46 65 54 57 49 44 52 52 47 78 98 100 96 78 80 82 80 58 78 89 96 60
94 90 93 90 67 67 79 70 95 80 73 86 95 93 73 84 63 62 48 48 43 44 49 48 58 58 55 49 45 62 54 49 66 81 69 73 74 70 76 72 95 72 63 49
94 92 92 92 58 57 63 70 93 89 98 84 90 83 84 85 82 54 49 50 49 49 55 50 55 50 50 43 40 40 46 66 62 59 56 58 67 65 58 84 70 70 40 45
93 92 92 93 73 54 61 86 95 84 88 71 88 94 87 95 76 70 61 66 53 59 68 62 60 54 53 55 42 43 42 64 56 62 55 61 70 60 58 60 57 46 45 47
88 91 92 95 91 69 58 63 66 93 68 71 88 99 100 97 91 78 56 62 58 66 71 62 52 44 43 46 52 50 50 55 56 83 54 61 79 62 60 55 50 50 58 45
88 81 92 93 95 77 75 70 76 86 73 64 92 94 99 97 93 90 58 61 57 61 54 54 52 42 45 46 45 44 50 50 58 78 54 84 61 50 50 53 48 45 46 47
82 72 86 94 94 94 79 75 72 75 86 61 70 66 98 96 86 74 63 63 60 56 60 68 63 63 54 55 52 48 46 50 68 86 65 54 53 59 55 60 59 45 47 46
86 79 85 88 94 94 80 75 79 70 82 65 50 62 95 100 98 92 65 56 55 56 64 66 78 94 51 60 53 47 45 46 72 78 78 64 75 56 50 60 75 48 49 60
84 85 85 90 92 93 86 80 76 82 76 57 56 66 72 96 100 100 82 76 72 56 73 78 75 67 52 63 56 56 63 66 77 69 84 56 55 44 50 87 83 53 57 56
84 87 92 82 92 94 86 80 78 80 84 68 59 51 63 62 83 100 96 87 80 79 81 77 66 67 63 62 54 59 64 76 78 70 71 74 49 59 76 66 57 53 49 56
84 93 93 82 86 92 86 81 78 84 94 73 59 60 63 62 57 71 80 88 87 82 82 87 71 68 63 62 73 54 71 62 69 63 66 47 44 48 44 44 53 52 46 56
86 92 92 94 91 84 87 84 84 83 90 71 62 61 49 56 62 60 84 81 92 86 84 89 78 79 67 74 69 59 52 50 62 60 51 45 44 57 55 55 58 55 54 56
93 95 95 90 91 80 78 81 82 87 92 98 57 42 46 49 56 57 57 65 66 79 88 86 85 75 60 68 67 66 63 56 56 58 47 50 56 64 64 58 62 62 56 57
93 95 95 94 94 90 87 79 86 90 96 92 78 63 55 51 58 55 62 57 63 86 94 90 85 76 72 66 75 73 59 56 67 68 61 57 67 68 62 66 67 63 65 64
93 95 96 95 95 96 89 93 91 88 91 100 96 54 50 42 54 50 74 80 76 92 95 91 86 66 74 81 72 48 47 45 49 63 63 67 65 65 66 66 66 64 65 60
86 95 97 95 92 96 84 89 93 97 98 100 90 85 64 64 68 82 91 78 92 95 91 89 81 75 75 80 82 48 46 48 67 68 66 69 73 77 70 69 70 64 62 59
89 96 93 82 71 91 99 87 84 99 98 99 92 87 75 78 96 97 92 98 97 95 90 90 87 82 81 90 74 66 67 66 65 70 73 73 67 64 66 67 70 74 74 71
81 80 65 88 86 92 95 95 94 100 95 99 90 95 96 95 94 87 92 92 98 93 97 91 85 84 97 77 68 69 68 72 79 74 73 75 75 75 78 77 76 76 77 75
76 81 77 87 98 80 95 98 99 100 100 100 96 71 90 94 97 97 98 94 99 100 90 88 99 95 71 76 79 79 79 78 76 81 81 87 86 85 80 77 74 74 76 78
82 83 91 87 82 84 96 100 100 90 96 92 87 78 88 87 100 100 94 100 99 99 96 91 90 86 86 77 79 74 74 73 76 78 79 79 79 81 79 76 75 77 78 76
91 92 85 92 82 91 100 98 99 99 96 96 100 100 99 97 97 100 100 96 99 98 94 99 92 88 82 74 75 76 76 73 74 73 76 76 78 82 82 82 83 85 84 80
88 95 99 100 99 96 97 97 98 98 100 100 99 98 99 97 99 100 100 99 99 95 99 82 74 88 76 78 83 88 80 78 78 80 83 84 87 90 97 95 94 96 92 88
86 96 86 92 97 98 100 99 98 98 100 98 98 99 100 99 100 100 98 99 98 98 99 94 99 100 80 88 88 86 94 95 99 98 98 99 98 97 98 98 99 99 99 100
94 93 91 86 85 97 98 93 96 93 99 98 98 99 100 100 100 100 100 99 90 86 96 100 100 100 93 97 95 93 94 96 99 96 94 94 98 99 98 99 99 99 99 99
87 85 96 84 94 94 93 91 87 96 95 97 100 99 100 100 100 99 99 99 97 100 100 100 99 100 99 99 73 61 61 65 67 72 78 83 87 88 86 85 94 94 93 98
89 94 77 81 84 90 80 80 78 83 97 99 99 99 99 99 99 99 100 100 100 100 99 100 100 100 99 94 78 59 62 62 65 67 72 69 66 80 74 82 86 86 88 85

GFSNW_925_rhum_081.txt.gz
RH
95 91 89 88 85 87 74 92 94 59 66 90 92 95 77 68 73 72 83 87 79 60 56 67 69 73 71 66 73 93 78 78 93 99 78 72 80 90 84 90 98 91 92 77
95 93 86 89 81 68 93 94 92 55 63 94 97 81 70 65 76 71 64 66 54 49 58 73 63 65 55 51 53 65 71 86 98 91 92 79 81 86 79 76 84 89 91 74
95 93 90 88 47 53 74 92 96 90 91 88 93 95 87 81 67 73 60 56 55 58 61 59 64 62 54 52 47 63 64 82 82 89 74 86 94 89 78 73 94 85 80 52
89 92 92 90 51 54 61 94 94 85 98 90 89 90 87 89 93 71 65 64 70 72 76 65 67 58 53 45 49 44 53 77 74 64 66 66 73 89 87 97 71 74 49 51
91 94 93 92 66 54 62 93 97 88 90 80 87 84 92 98 87 94 80 82 74 75 83 82 79 67 63 62 54 51 51 72 60 70 65 68 76 68 83 76 83 63 47 51
82 88 94 94 92 69 71 71 70 94 80 69 90 93 97 96 94 87 80 75 71 79 77 74 73 72 52 48 55 60 55 63 68 87 66 72 83 68 66 61 56 53 58 48
83 82 85 93 93 85 80 73 82 86 92 79 75 77 79 96 97 91 78 70 75 67 64 66 58 58 50 54 57 52 56 58 70 84 66 85 64 50 54 58 52 50 52 51
87 80 85 94 93 94 83 78 80 91 82 79 70 67 79 90 90 92 89 67 64 66 68 75 72 78 62 62 56 54 53 64 74 84 77 62 56 58 59 62 60 48 53 56
92 82 79 88 94 94 79 83 73 85 92 81 68 72 88 100 100 94 85 67 68 64 75 78 84 97 58 64 61 52 53 60 80 84 78 72 74 56 56 63 84 52 52 64
90 83 76 83 94 89 88 82 82 84 98 73 68 83 75 83 95 96 96 91 87 69 87 87 84 80 54 75 64 58 75 75 81 80 86 71 65 49 59 83 76 63 61 60
87 84 85 93 90 80 87 78 81 83 92 81 68 63 73 75 85 96 99 98 90 90 92 88 84 80 73 67 59 66 69 82 84 73 78 76 53 62 76 72 56 56 55 61
90 87 92 93 93 94 88 82 78 83 95 83 60 65 67 64 60 73 92 99 98 92 90 94 86 79 80 72 86 60 71 67 71 69 70 51 47 53 48 50 57 54 51 58
87 93 93 96 91 92 96 83 79 84 97 84 78 67 48 53 63 67 82 89 89 85 85 97 96 83 80 87 84 71 59 56 67 64 52 50 62 65 60 61 62 60 59 59
81 91 96 96 95 93 97 95 81 87 96 98 82 47 52 49 49 64 65 69 73 72 87 92 96 84 66 76 72 70 70 60 64 65 55 69 73 71 67 69 68 66 62 58
76 86 95 95 95 95 98 91 83 95 93 98 87 72 59 52 50 58 62 64 66 83 97 95 92 89 74 77 81 83 67 65 74 72 68 67 76 70 66 73 70 69 69 66
77 80 94 94 91 95 88 91 87 91 96 100 95 73 68 52 52 65 71 66 74 85 86 89 90 80 74 89 86 57 56 56 56 70 67 74 77 74 68 71 73 68 66 64
76 78 89 92 93 99 89 87 89 88 97 98 91 92 69 66 62 70 74 83 88 91 90 95 89 83 73 87 89 58 58 68 76 71 69 79 74 79 70 70 71 71 70 69
77 81 94 94 80 96 96 83 86 93 97 98 98 89 87 90 95 96 90 96 95 92 91 90 91 82 84 97 80 68 73 75 78 81 76 77 70 67 74 72 74 75 76 76
74 71 80 86 88 94 90 85 93 100 95 95 94 99 94 85 98 92 94 94 99 90 94 88 91 93 99 83 76 68 74 76 85 75 74 74 76 80 79 78 79 79 81 80
71 68 79 87 92 82 76 98 99 100 100 100 95 80 92 89 91 96 87 95 99 99 97 89 99 96 81 86 88 86 80 78 78 79 87 87 87 86 83 79 76 82 86 87
76 90 97 78 75 82 88 82 97 96 97 98 96 99 97 86 99 100 97 100 98 99 91 92 96 94 93 87 86 78 76 75 79 79 80 78 80 83 82 80 78 80 81 81
89 90 86 91 89 96 94 98 98 99 97 100 100 100 99 99 97 100 100 100 100 95 91 99 98 90 89 83 80 82 81 77 77 78 82 80 81 85 86 87 87 90 90 88
78 90 88 98 96 86 96 99 96 95 97 98 98 97 99 99 99 100 100 99 98 88 99 96 78 91 86 90 94 91 82 81 81 88 91 92 94 98 98 98 99 100 99 97
90 96 89 97 98 98 99 99 94 88 98 96 95 98 100 99 100 100 100 99 98 99 98 88 92 93 87 93 91 90 97 99 98 97 97 96 98 98 99 99 99 100 97 100
97 93 95 92 88 98 94 84 81 85 95 93 94 99 100 99 99 99 100 99 97 88 89 99 99 99 100 100 99 96 97 98 97 94 95 89 88 88 92 96 95 95 93 97
92 89 94 90 95 96 96 94 88 87 87 93 99 98 99 99 100 99 99 98 97 99 100 100 100 99 100 100 76 64 65 66 69 74 76 74 76 90 86 80 81 87 90 89
89 90 81 96 96 94 95 96 94 79 94 99 100 98 98 99 99 98 100 99 99 99 99 99 100 99 99 98 97 90 62 62 62 66 69 67 60 70 66 83 79 80 83 78

GFSNW_925_rhum_084.txt.gz
RH
96 93 88 86 86 79 68 86 89 58 71 88 93 94 81 70 76 78 89 91 94 74 64 84 83 95 94 97 95 98 96 100 97 84 80 75 71 90 82 87 96 92 92 78
95 94 80 57 54 65 83 94 92 53 60 96 97 80 77 72 77 79 73 69 62 56 64 73 66 67 52 78 86 95 88 91 98 99 96 89 97 90 78 81 81 91 88 77
96 95 86 55 42 50 72 91 94 88 88 85 91 92 84 87 66 75 71 66 65 70 70 62 68 65 52 53 66 64 64 88 72 81 75 85 94 92 76 74 91 88 85 56
96 94 91 87 46 48 60 94 90 81 98 88 90 88 81 94 91 76 78 72 81 81 85 77 77 70 62 51 57 63 57 92 73 75 81 75 73 91 82 86 73 77 57 58
87 86 79 92 68 54 66 90 95 92 96 78 82 81 88 92 86 92 96 87 88 78 89 90 94 90 66 64 58 57 54 72 60 74 72 75 86 87 84 77 75 63 49 50
85 82 79 94 89 66 74 75 75 88 80 82 81 94 87 87 98 78 76 78 92 76 77 77 78 78 77 70 59 64 57 70 72 84 70 71 96 90 86 77 76 57 58 46
88 77 83 94 94 79 82 79 86 89 83 85 80 75 71 80 93 94 73 81 83 68 70 71 64 67 55 56 59 55 58 63 72 86 68 89 61 52 62 64 59 52 49 47
91 77 78 88 94 90 75 82 78 93 97 84 77 79 74 69 77 94 94 78 75 76 77 77 73 77 65 58 58 60 57 69 78 83 81 64 57 54 65 63 64 52 56 63
90 77 75 80 83 94 69 83 80 87 98 76 75 80 77 92 91 86 88 74 75 74 81 82 81 92 66 65 59 57 60 70 77 87 76 70 73 59 56 59 83 54 58 67
85 79 79 78 82 93 80 74 80 84 96 83 74 86 82 76 92 93 81 90 93 79 90 90 86 81 63 80 74 68 77 81 85 84 86 75 67 54 60 77 70 62 66 68
80 78 78 75 94 91 94 77 77 83 83 83 71 67 76 77 80 88 80 84 98 92 92 93 89 82 77 68 67 70 73 82 85 77 81 75 56 61 74 70 60 62 63 62
78 76 71 89 92 88 96 82 81 79 96 85 66 68 72 72 67 75 78 97 100 92 97 90 95 85 85 80 87 67 72 68 71 72 71 54 52 56 52 53 56 55 62 62
78 69 80 93 96 96 95 96 92 83 98 91 82 71 47 53 64 67 83 85 84 94 76 98 95 87 84 87 79 74 65 61 67 65 54 53 66 66 65 67 65 64 61 59
72 75 81 82 92 89 95 99 98 97 89 95 84 53 56 53 56 65 67 66 86 96 89 97 96 97 72 78 75 74 67 62 66 69 70 74 73 71 69 73 71 70 66 62
74 77 75 73 77 80 94 91 91 89 90 94 93 80 62 54 57 61 65 76 76 100 98 98 94 91 86 84 84 86 70 66 73 74 65 65 74 70 69 74 73 72 69 66
76 79 79 78 85 95 88 88 90 90 96 100 92 73 76 60 65 65 74 77 78 84 100 93 88 84 81 93 89 63 62 59 57 70 71 75 78 73 69 76 75 71 67 66
76 77 80 93 96 98 83 84 90 92 100 99 96 82 71 64 76 74 88 72 88 93 96 92 92 87 80 90 94 62 68 64 73 73 76 80 78 81 73 72 72 71 72 75
74 74 74 72 76 86 91 90 86 90 91 93 99 88 82 92 99 92 88 92 95 97 93 87 88 85 86 96 82 74 76 82 82 82 80 78 77 76 76 76 76 75 75 77
69 68 76 78 73 90 87 73 93 97 89 96 96 97 97 83 91 98 95 92 100 92 96 89 90 94 94 86 78 74 76 76 82 76 78 78 80 82 79 77 77 80 83 82
65 63 70 91 84 74 69 98 93 91 91 100 96 93 94 94 100 100 100 91 99 99 97 89 98 89 85 89 89 88 84 78 76 80 92 86 87 86 83 82 78 80 85 88
70 86 96 74 76 73 94 87 92 93 96 97 96 97 95 90 100 99 98 100 99 96 94 99 97 97 95 90 88 82 77 78 80 81 81 81 81 84 84 83 82 84 85 85
78 86 84 87 91 94 91 97 95 94 96 94 97 92 90 96 98 100 99 100 99 98 95 99 96 90 92 86 86 85 82 78 82 83 85 83 83 88 89 91 92 94 93 92
80 79 80 87 92 85 98 98 89 92 94 84 84 90 91 95 100 99 100 99 98 92 99 92 82 92 89 94 93 89 85 82 86 91 94 97 98 99 99 98 99 98 96 99
90 92 68 92 97 91 97 96 82 82 92 89 85 92 98 97 100 99 100 99 99 98 99 92 95 93 84 91 93 91 98 99 94 94 93 95 98 95 97 98 97 98 96 99
96 92 76 93 88 97 91 83 89 91 76 88 89 94 100 99 99 100 99 99 97 92 92 99 99 97 97 99 99 99 98 97 97 96 95 92 87 87 92 89 85 94 92 92
93 94 96 91 95 97 98 98 96 94 86 90 95 98 98 98 99 99 98 98 97 99 99 100 100 99 99 99 99 73 71 72 74 74 72 65 70 89 79 73 79 87 87 83
90 90 78 89 95 94 96 96 95 82 92 94 96 100 97 97 98 98 99 99 99 99 98 99 99 99 99 98 98 99 65 60 58 61 64 62 62 62 66 81 79 78 81 75

GFSNW_925_rhum_090.txt.gz
RH
74 72 50 54 86 61 64 78 88 58 88 87 94 98 98 78 76 79 86 90 90 97 98 97 97 97 97 79 67 84 82 93 92 79 75 66 70 83 84 93 97 95 92 69
70 70 51 42 80 54 76 90 89 46 62 98 97 79 70 66 92 93 72 89 83 75 87 96 100 99 98 84 68 73 75 88 98 96 86 80 75 89 68 78 82 96 85 59
68 73 53 42 50 45 61 84 78 80 87 88 92 93 85 78 61 86 77 91 72 83 84 87 90 96 99 92 68 57 54 84 80 84 67 74 82 87 84 71 91 86 82 64
76 72 60 47 42 41 44 90 96 90 98 86 88 84 73 80 81 72 79 92 90 96 93 82 90 86 94 99 99 98 89 96 91 82 80 64 66 84 96 98 74 75 61 70
83 76 72 56 44 40 64 82 84 89 91 86 83 86 92 89 76 73 87 97 96 97 99 100 100 96 86 80 98 100 100 100 79 82 80 78 82 82 86 85 76 71 59 59
83 73 73 66 50 41 73 89 89 85 77 79 82 90 87 80 74 68 86 94 99 90 96 95 91 91 86 86 87 92 74 85 72 95 81 85 94 91 88 81 72 65 73 54
85 73 78 68 61 49 64 87 84 80 71 74 82 81 83 81 72 78 69 73 95 89 70 81 88 97 96 88 67 67 65 68 75 88 73 94 58 57 76 75 73 65 50 46
86 74 79 76 67 64 58 78 82 91 86 85 79 83 85 78 78 77 68 83 70 63 88 85 77 72 60 56 55 65 63 72 81 91 87 62 60 68 85 81 78 65 66 50
86 75 78 83 77 69 59 70 82 87 83 74 76 88 80 88 93 85 70 54 59 77 91 90 84 90 76 74 70 56 61 66 74 86 76 63 81 60 60 53 81 53 58 60
89 77 76 84 75 76 70 70 71 84 92 83 76 76 82 79 87 93 85 76 72 87 95 95 92 90 73 83 83 81 79 82 84 86 85 69 61 62 62 74 61 56 60 70
86 78 80 93 87 75 75 78 81 71 90 84 76 74 82 83 86 92 82 84 89 91 96 92 97 92 85 81 71 80 80 84 88 81 77 70 58 63 63 60 67 64 69 68
78 76 87 92 94 94 79 80 82 86 91 80 72 73 72 67 65 83 87 84 94 100 97 97 90 91 90 88 86 70 76 75 81 73 73 60 59 62 66 63 62 62 67 66
74 71 94 90 89 94 90 92 88 91 95 87 72 58 58 60 66 67 87 85 97 100 100 100 100 97 90 90 82 79 66 69 76 69 60 66 74 73 74 70 68 70 67 66
75 80 92 82 89 92 92 98 91 88 93 98 76 60 66 65 63 72 70 75 94 91 95 100 100 94 83 91 84 84 72 71 70 74 66 74 74 75 73 77 78 76 76 74
79 81 81 80 89 90 83 86 90 88 79 95 93 74 58 55 59 70 78 79 84 96 96 96 99 90 95 91 90 95 79 69 77 72 65 65 71 75 71 74 76 75 70 71
76 79 77 82 93 96 83 89 91 92 86 97 91 71 76 60 60 77 85 87 90 96 87 86 87 82 89 94 95 71 69 68 64 69 71 78 78 75 72 76 76 74 78 76
79 82 80 81 90 90 73 80 86 97 99 96 93 92 67 62 86 85 91 88 90 93 96 90 92 89 86 92 87 72 77 82 81 81 77 79 76 80 80 79 77 74 78 81
84 78 71 77 86 86 95 80 79 99 94 84 96 93 80 80 95 93 92 94 92 93 92 92 93 86 91 98 76 74 79 80 80 83 82 82 86 84 82 80 79 82 86 87
76 80 81 83 80 82 84 86 91 95 84 99 93 98 98 83 89 92 98 95 98 89 97 93 92 84 97 83 81 76 81 82 79 82 83 84 86 88 83 81 84 84 86 85
77 76 76 91 77 74 88 94 93 94 96 94 84 94 97 87 90 90 100 96 98 99 87 87 98 95 83 90 90 88 86 83 79 80 84 85 87 87 85 86 84 86 90 88
62 78 90 73 77 82 90 82 85 89 86 84 83 96 97 81 96 98 93 99 97 99 94 99 99 96 94 91 89 88 86 81 83 82 82 82 83 85 86 88 88 90 89 91
64 69 78 86 89 90 85 91 86 84 93 76 92 95 91 90 96 100 100 99 100 98 96 99 90 88 94 91 88 84 83 82 86 87 86 89 91 95 92 91 91 92 93 94
68 74 87 84 91 92 88 100 87 90 92 92 93 93 88 82 99 99 100 99 96 93 99 95 88 93 92 93 90 89 84 85 86 87 89 94 97 98 95 93 96 93 92 94
80 78 77 77 96 92 95 90 90 89 97 98 96 97 98 90 98 95 100 97 100 98 98 96 97 99 85 88 88 89 95 88 87 86 89 89 84 94 95 85 91 95 95 93
92 81 64 97 86 93 94 90 93 96 97 94 95 95 98 97 98 98 98 99 98 95 98 99 97 97 98 97 97 95 98 95 100 100 98 95 94 94 96 79 87 90 80 80
92 94 90 94 98 99 99 92 93 97 98 96 83 91 97 97 97 98 98 98 96 97 97 97 97 97 98 100 100 100 99 90 86 79 74 63 75 83 74 75 76 81 85 76
92 96 91 93 96 95 97 98 95 88 85 93 86 93 82 95 99 97 98 96 97 96 84 87 98 98 98 100 99 99 98 73 64 60 59 56 61 58 59 64 71 80 77 76

GFSNW_925_rhum_093.txt.gz
RH
63 57 45 72 89 51 62 75 85 61 92 87 95 96 96 61 76 77 84 91 81 93 99 98 97 97 98 79 66 82 78 93 92 74 71 62 71 80 77 87 92 93 83 66
61 55 46 48 90 52 72 85 84 45 65 97 96 68 71 68 72 84 80 94 80 75 98 99 99 100 99 84 64 73 74 79 96 92 71 78 82 82 72 74 79 95 78 58
61 57 48 50 72 46 55 76 74 72 88 88 85 89 82 81 68 85 73 96 76 81 80 85 95 99 100 80 60 58 57 72 75 76 60 75 88 88 73 69 81 73 74 60
62 59 49 50 50 45 44 87 97 91 84 75 87 86 78 84 77 67 74 90 84 100 97 95 95 94 100 100 95 93 75 97 82 78 77 73 72 85 80 78 62 61 51 60
71 60 52 50 43 42 59 74 84 89 89 84 81 84 86 84 70 75 84 89 85 92 100 100 100 100 92 100 100 100 99 94 87 91 82 77 73 76 78 65 67 66 57 57
80 61 57 52 33 35 70 90 91 77 72 76 78 88 82 75 77 64 67 81 82 84 96 89 81 83 85 90 99 100 100 97 90 96 86 89 90 87 87 81 76 70 79 58
82 64 64 61 47 40 59 85 80 74 62 72 75 78 81 79 73 80 68 64 92 81 60 74 90 97 95 99 90 86 90 93 78 90 94 98 60 63 75 74 72 65 56 47
83 65 64 78 59 50 58 80 80 81 69 79 78 78 83 77 79 83 76 71 61 57 83 88 76 75 61 60 58 70 68 71 77 88 86 65 62 76 88 80 80 69 59 52
81 69 64 76 71 66 61 73 82 82 75 65 73 86 79 91 94 86 73 60 57 73 91 91 88 98 82 77 72 58 61 66 78 82 78 66 82 64 64 64 81 58 66 63
84 71 67 78 72 70 70 79 77 78 78 76 74 72 81 82 87 94 87 79 81 77 97 96 96 93 76 88 85 84 79 79 84 85 84 71 59 65 65 73 63 66 60 66
81 72 70 88 81 79 78 82 78 80 91 84 72 70 78 82 87 94 81 82 84 83 95 91 87 86 91 85 72 82 83 86 88 80 74 72 59 66 62 65 68 65 70 70
82 70 75 89 87 89 80 80 76 80 88 78 78 73 72 68 65 83 87 86 96 100 95 90 98 81 92 91 87 72 78 76 84 73 73 61 61 66 70 67 65 69 71 70
78 74 85 86 84 84 88 90 84 80 91 77 68 62 65 66 71 68 83 86 94 97 97 100 97 100 88 94 85 83 68 73 80 71 62 63 75 73 74 72 70 72 71 71
76 94 96 78 83 85 87 88 86 86 90 81 59 62 67 65 65 71 74 82 88 90 93 96 100 94 83 94 84 88 76 72 73 76 67 72 72 77 74 76 77 78 78 78
90 97 90 78 83 86 84 82 86 86 76 79 83 65 60 60 60 72 82 82 85 96 90 92 96 93 95 92 88 97 82 71 78 74 66 67 70 78 73 76 78 79 73 76
94 94 78 82 87 82 77 91 88 84 81 94 89 72 72 59 69 76 87 87 88 95 79 84 90 85 93 98 81 74 72 73 70 70 74 78 80 78 74 79 79 79 83 79
93 79 82 90 91 85 72 83 92 96 89 88 89 85 65 64 87 89 94 90 91 93 95 95 81 92 92 80 83 71 75 80 81 80 78 79 76 83 83 82 80 79 83 84
84 92 82 96 80 88 87 82 92 96 89 83 96 86 76 77 91 96 90 92 90 91 91 90 93 82 90 96 81 70 79 80 80 84 84 83 88 84 83 80 77 82 86 87
90 93 88 82 78 87 89 94 86 83 76 98 92 98 97 83 87 93 97 90 96 86 98 94 90 95 95 84 82 77 82 81 81 84 85 86 88 88 83 81 84 85 87 86
88 76 72 91 80 86 89 79 89 91 92 86 89 93 98 87 85 94 87 100 100 99 93 84 98 94 79 92 91 89 88 85 80 83 87 86 87 86 84 87 85 86 89 88
70 80 91 83 85 84 87 85 86 89 85 85 87 94 92 84 89 99 93 100 99 99 91 97 98 96 93 92 90 89 85 81 83 83 83 83 82 84 84 89 88 88 89 92
57 72 77 79 84 90 89 90 84 90 93 91 96 94 92 91 95 100 95 91 99 96 92 100 96 96 93 93 89 84 83 82 88 90 92 93 93 92 90 90 92 93 93 94
64 73 84 81 94 90 81 98 98 94 95 94 94 91 88 81 94 93 98 98 96 97 99 95 97 98 98 96 98 88 85 85 84 86 90 92 96 93 91 94 93 92 92 94
80 80 80 76 90 92 90 86 86 87 96 99 98 97 96 92 96 86 98 79 99 98 97 97 96 96 95 97 99 97 97 96 88 87 86 85 80 95 88 82 93 88 86 90
88 77 67 89 86 97 96 95 96 98 97 95 94 88 98 99 95 97 97 97 98 96 96 98 90 91 93 94 98 99 99 98 98 99 98 96 96 95 90 77 80 82 74 70
89 88 88 90 96 99 95 88 90 96 98 96 85 86 96 93 97 98 95 97 95 94 96 92 90 91 92 95 98 98 98 99 91 85 80 64 76 80 73 75 75 79 81 74
90 99 84 90 95 96 98 93 98 89 89 95 81 92 83 93 99 100 98 96 94 95 97 96 88 92 94 97 99 100 99 98 79 59 58 55 59 58 57 60 70 78 72 71

GFSNW_925_rhum_096.txt.gz
RH
55 53 51 81 71 38 59 67 74 60 87 76 80 76 72 61 63 63 75 90 82 78 75 100 97 98 100 76 54 65 61 74 69 61 50 60 88 59 57 90 86 76 74 52
55 51 47 60 55 38 56 57 57 47 72 85 78 58 61 61 65 70 73 94 82 85 81 93 100 100 98 70 51 49 50 68 70 70 48 62 84 60 50 57 66 88 70 50
51 50 46 51 43 38 43 50 89 52 54 67 72 78 58 51 50 74 66 90 68 80 73 67 93 100 99 67 50 51 40 49 58 44 46 51 66 58 56 54 68 55 48 43
50 47 45 44 36 39 40 54 75 71 72 59 68 73 57 55 53 51 64 74 74 90 90 79 87 100 100 97 88 70 51 56 49 49 54 62 60 53 55 72 44 47 43 38
54 45 44 41 31 36 57 52 70 70 62 63 64 60 51 57 52 62 73 72 67 77 92 95 100 100 98 91 99 95 87 75 87 64 57 59 79 52 46 44 40 41 48 43
56 45 46 42 34 34 60 89 85 57 59 59 52 54 56 52 59 48 59 62 71 78 87 65 63 65 84 96 98 93 95 75 71 93 85 72 78 59 55 42 36 38 45 37
58 43 49 48 40 35 53 80 72 49 42 47 50 60 64 59 58 66 57 60 78 63 50 63 78 81 86 90 89 90 92 92 67 78 84 82 58 58 50 50 44 45 44 46
54 43 54 55 50 50 51 72 62 50 46 49 60 62 62 58 60 67 64 57 50 54 72 73 60 60 64 63 64 90 87 74 61 74 70 60 57 65 74 70 60 51 50 41
49 45 58 63 59 59 62 78 73 54 45 46 58 59 63 71 66 58 57 50 57 67 81 74 77 82 71 64 61 54 57 58 64 64 66 61 69 60 59 61 71 52 50 47
48 48 61 67 62 62 67 80 75 69 47 56 60 60 63 69 70 69 64 65 70 62 74 78 82 76 68 70 71 70 64 63 64 64 64 63 53 54 60 79 67 62 52 48
51 51 64 74 71 68 71 83 77 77 64 63 66 62 67 67 68 69 60 72 67 76 84 82 83 73 74 70 62 72 71 72 67 64 63 70 49 59 62 67 58 58 57 54
55 52 68 81 81 74 72 85 78 78 74 65 73 72 70 68 64 66 68 76 90 87 76 74 87 76 71 78 67 59 68 64 70 63 59 54 54 60 66 59 61 62 59 60
56 56 74 93 89 79 77 84 83 82 74 61 53 55 64 66 72 70 68 72 77 84 80 81 88 97 78 73 65 71 57 60 66 62 58 56 67 66 64 63 63 63 64 60
59 72 93 93 85 81 80 86 81 78 73 52 50 61 68 66 68 74 74 80 78 76 79 78 91 98 73 76 72 76 58 61 60 58 55 57 67 70 66 67 65 67 71 69
78 96 92 92 83 87 80 83 86 80 70 52 54 64 64 61 64 77 84 76 73 82 76 81 84 88 89 77 81 77 62 56 56 55 56 56 59 68 65 66 69 67 65 68
93 98 93 90 81 82 74 86 87 84 81 74 66 66 63 60 77 80 86 81 79 79 73 71 74 71 82 94 75 56 56 57 57 55 65 62 68 67 65 68 70 70 66 65
92 96 92 87 81 80 75 70 85 87 83 73 71 60 59 68 84 84 82 84 76 75 82 89 72 72 82 90 74 54 59 66 68 69 69 72 70 70 71 68 73 75 74 75
95 96 88 97 83 83 82 98 92 83 84 68 80 64 61 72 72 74 83 82 80 82 74 72 79 70 82 87 68 66 67 72 71 71 73 73 72 73 73 72 70 71 72 74
94 91 99 87 82 88 93 90 82 73 70 84 77 71 67 68 74 76 89 88 87 75 83 75 77 78 92 78 82 76 80 81 79 76 76 77 77 77 75 74 74 75 78 75
90 84 75 86 89 91 90 81 76 78 78 76 77 81 74 75 70 79 80 94 94 98 80 77 89 76 83 90 83 79 80 78 78 81 81 82 82 80 80 79 76 79 81 81
69 79 87 94 100 83 80 83 82 80 84 74 75 78 77 73 79 83 83 89 92 97 86 92 87 91 90 91 92 82 77 74 75 77 77 78 78 78 79 84 82 82 84 85
61 74 79 84 79 83 85 90 81 82 77 83 80 82 82 76 84 96 90 88 87 86 94 100 87 91 89 96 95 92 79 81 83 86 86 87 86 85 83 83 83 85 85 86
66 74 88 81 92 85 82 91 95 95 89 87 86 80 74 73 83 84 90 94 85 83 100 88 89 84 76 80 98 100 97 88 84 85 88 90 90 88 85 81 85 84 83 87
73 80 78 77 89 82 82 75 79 74 87 90 83 88 82 82 84 76 90 72 91 96 93 91 77 63 63 77 82 99 100 100 99 94 87 83 81 86 79 81 88 77 73 81
79 73 57 85 83 92 87 88 89 93 85 85 85 85 83 94 87 84 88 87 90 86 81 81 73 66 69 78 89 96 99 100 98 96 99 94 94 93 85 79 81 83 73 69
86 83 88 90 92 97 92 94 95 92 87 80 77 83 88 83 93 94 93 92 87 81 86 83 81 88 83 84 86 95 98 96 98 91 86 69 77 83 78 73 75 79 78 71
86 94 76 85 89 90 89 84 89 83 78 88 84 95 83 85 96 96 88 92 79 81 79 80 87 91 84 86 92 98 99 99 98 94 80 61 82 68 60 55 70 74 70 70

GFSNW_925_rhum_099.txt.gz
RH
55 63 53 48 34 38 65 57 67 63 87 70 66 69 57 56 55 55 68 77 69 69 62 100 100 99 100 63 44 55 46 66 59 56 54 56 98 81 60 89 72 64 77 53
54 59 49 45 32 36 56 40 44 57 65 85 67 50 51 53 57 63 66 71 62 66 70 84 99 93 92 55 45 41 46 58 64 56 50 66 71 56 52 52 61 82 83 48
52 55 46 40 28 32 53 40 91 44 43 53 61 59 47 43 45 65 64 79 56 67 66 60 89 97 84 57 41 48 45 42 50 50 50 48 66 54 50 52 79 59 44 41
51 53 43 33 25 32 48 38 61 55 72 47 46 56 41 43 49 46 56 84 63 72 86 67 96 98 87 74 71 53 46 54 38 41 54 52 51 49 52 72 52 77 40 39
56 51 40 30 26 33 44 39 50 48 42 48 47 47 39 43 42 53 63 65 59 65 87 90 95 98 90 94 84 87 66 68 71 65 37 41 51 50 40 44 44 40 37 38
57 49 40 30 28 34 42 58 57 41 46 39 40 41 44 43 46 40 49 51 62 65 71 57 57 60 76 97 91 79 83 61 83 94 86 66 77 54 44 38 32 35 40 32
62 42 38 32 33 35 49 53 42 34 32 31 37 44 48 47 47 53 44 50 66 52 50 56 64 62 65 72 97 78 77 77 70 94 78 89 55 50 47 41 34 27 34 40
64 44 36 34 37 36 62 65 41 30 30 30 41 45 47 44 44 54 53 46 45 51 66 68 60 63 72 67 72 100 94 93 89 88 65 54 54 54 59 61 48 33 33 32
62 46 40 36 43 44 69 76 64 34 30 34 40 45 48 54 48 48 46 43 49 57 72 63 70 72 57 60 60 60 76 70 73 61 64 57 60 54 52 53 71 49 44 39
60 48 43 40 47 54 74 80 79 42 36 45 47 47 49 54 54 50 47 55 62 54 62 69 71 63 58 65 66 65 59 57 64 66 61 59 53 58 52 77 73 56 50 45
58 51 46 44 51 58 74 85 88 60 38 54 54 53 52 54 52 57 52 66 62 64 69 67 68 66 62 64 54 62 64 66 56 53 56 69 49 58 72 65 50 52 51 44
60 54 50 50 56 60 74 70 86 79 55 56 61 60 62 59 56 58 58 70 85 76 69 62 67 64 58 62 79 50 72 60 66 60 61 49 51 59 62 55 57 57 53 48
59 55 54 57 62 63 78 75 82 71 50 52 50 50 61 67 69 65 58 63 69 67 69 73 76 82 62 64 65 59 49 50 58 58 51 50 57 57 56 58 58 58 57 54
62 58 61 73 72 73 68 76 86 74 52 45 50 59 59 68 70 72 67 64 64 61 66 72 80 84 66 62 66 66 50 54 51 48 50 49 59 62 58 68 57 59 62 59
79 82 87 95 91 77 63 91 92 83 70 47 49 53 61 62 64 67 76 67 63 67 66 73 80 75 85 66 72 66 51 54 55 71 57 53 58 63 65 63 70 60 60 64
91 90 82 96 91 72 67 81 87 92 88 63 64 56 53 56 73 71 74 73 65 62 70 61 62 59 74 78 70 48 48 48 52 54 50 58 59 60 59 63 64 62 60 60
95 84 96 87 84 68 80 83 90 86 92 63 65 55 53 62 74 74 72 73 67 69 72 80 63 60 77 84 74 51 53 54 58 58 63 63 63 63 62 63 66 67 66 67
86 96 84 86 79 72 85 98 84 80 71 59 94 63 58 61 62 71 78 76 71 74 66 61 66 57 63 74 61 63 65 63 61 63 64 68 66 65 67 65 64 65 65 65
89 97 92 76 84 87 93 89 72 67 78 76 68 68 72 59 62 64 82 83 81 68 78 67 66 61 81 91 81 76 72 76 77 70 68 69 70 71 71 69 68 69 71 71
98 83 75 83 93 79 88 83 75 76 69 67 62 63 67 64 60 71 74 89 91 95 78 65 80 67 87 83 89 88 80 75 71 80 77 76 75 74 72 73 72 75 76 76
72 74 89 100 94 95 75 85 80 77 80 63 63 61 68 64 73 76 70 88 85 91 86 89 79 88 81 74 78 84 77 77 80 78 74 74 75 76 74 77 77 77 77 77
68 82 93 92 79 82 84 89 84 83 69 72 72 74 65 69 70 78 78 83 88 84 86 100 84 81 70 68 74 89 90 86 80 82 82 81 81 79 78 77 76 78 78 76
68 76 95 82 90 84 79 87 90 89 83 85 79 82 66 71 70 68 82 88 80 65 95 75 76 69 58 64 71 74 86 98 97 92 87 88 88 85 82 78 75 73 69 71
76 87 69 83 81 73 82 82 82 82 87 84 74 81 74 70 77 69 79 65 77 86 84 80 62 58 48 49 64 79 84 96 96 92 94 95 82 81 72 69 73 67 58 66
87 98 66 75 88 91 88 86 84 85 80 80 84 82 71 84 81 74 79 86 82 73 71 73 68 66 66 67 66 75 86 94 98 100 96 92 90 90 84 75 76 76 68 62
92 81 82 83 87 93 91 91 94 83 78 74 73 81 84 83 82 88 89 83 80 76 82 82 79 91 89 84 71 68 85 94 98 95 94 82 78 83 81 79 70 74 80 75
85 91 73 88 88 89 88 80 84 73 73 83 80 82 73 81 89 89 77 81 78 78 70 69 82 92 88 87 83 82 93 92 94 95 94 65 86 92 97 90 59 69 76 68

GFSNW_925_rhum_102.txt.gz
RH
65 56 57 42 41 45 70 61 93 62 85 90 62 86 54 52 51 51 64 71 62 70 65 100 99 100 99 67 43 52 46 74 80 78 57 72 87 90 70 99 93 89 94 68
59 56 49 39 35 49 56 63 67 56 72 98 83 50 48 49 53 59 63 68 54 57 78 95 84 87 78 53 46 51 47 76 86 76 59 63 78 62 67 80 76 87 96 67
60 55 43 35 30 32 60 56 98 65 62 54 57 55 44 42 47 59 66 75 50 59 70 75 96 89 77 64 48 55 50 53 61 87 63 59 69 59 55 61 93 98 85 52
64 53 42 31 27 32 49 51 82 65 94 57 45 53 41 43 49 46 52 78 57 64 87 85 95 97 77 68 66 58 60 70 51 52 46 54 53 55 55 72 90 98 52 52
61 60 37 32 27 33 52 53 60 53 46 44 42 59 44 42 40 51 60 60 56 60 83 82 89 89 93 88 78 92 73 83 55 74 56 46 57 50 47 52 77 66 43 49
56 48 36 31 28 39 45 52 50 59 49 40 41 50 47 43 44 41 44 49 64 59 67 62 60 60 78 97 83 83 79 79 78 96 81 63 84 58 51 42 41 47 48 44
56 42 41 32 28 35 44 48 40 44 42 36 44 40 44 46 45 52 41 46 60 56 53 60 62 63 62 97 99 90 67 76 76 97 76 96 67 57 57 46 36 33 35 42
56 47 45 36 30 37 48 47 49 42 37 36 40 43 44 43 45 56 51 46 46 53 67 80 85 84 91 81 82 97 91 78 92 97 98 62 58 61 67 60 54 42 36 33
54 47 47 42 34 36 35 54 46 47 43 44 37 44 46 59 50 57 48 43 48 57 75 71 80 80 59 82 83 91 92 89 99 87 88 96 70 62 54 54 84 65 59 46
51 46 49 44 38 35 31 50 53 56 54 53 49 56 59 55 58 58 51 56 67 58 71 68 72 72 56 73 72 84 85 82 88 82 88 78 62 65 58 79 98 64 54 54
52 47 53 47 42 40 43 68 65 69 60 61 50 50 56 58 58 71 63 74 73 76 65 63 61 62 63 70 57 64 70 82 93 70 71 95 57 60 81 79 61 64 59 51
51 50 54 48 46 44 49 74 67 57 70 69 56 63 62 60 60 69 72 77 80 78 87 67 68 66 55 61 95 54 87 68 80 71 75 54 59 71 63 62 68 73 69 63
47 53 50 49 48 50 59 66 55 48 65 66 61 59 62 63 65 66 77 75 71 65 74 78 76 78 62 61 77 67 56 55 70 62 55 59 65 60 70 72 68 70 66 64
53 53 61 56 52 52 53 64 71 64 62 66 65 58 62 66 68 70 67 64 64 62 70 79 82 86 78 73 73 74 62 60 59 67 69 54 70 71 67 77 65 66 68 72
63 76 93 72 61 57 58 64 67 65 78 70 66 51 61 60 63 67 74 65 65 65 81 76 81 79 87 72 74 75 56 67 72 84 64 70 74 75 87 73 80 68 67 75
78 93 98 72 58 49 50 82 61 51 75 87 87 60 55 60 70 71 71 69 62 69 81 83 74 59 72 82 78 62 60 62 63 73 67 63 64 65 63 68 69 68 71 70
89 95 98 75 66 56 84 86 90 75 73 80 81 72 58 62 66 70 70 66 70 65 70 80 77 69 74 82 71 77 77 73 68 69 73 71 72 74 68 69 68 67 68 69
93 96 99 84 65 72 80 87 77 81 66 71 99 84 76 62 80 90 74 85 75 80 68 67 71 62 70 80 92 72 74 72 70 76 74 74 70 66 71 67 67 67 71 70
97 99 79 65 72 86 88 70 64 72 81 94 92 93 97 67 75 69 82 88 91 79 81 71 66 66 92 91 88 87 86 83 83 77 76 70 72 73 72 71 70 72 77 76
82 69 74 93 99 76 73 71 93 93 85 80 89 70 95 78 74 68 75 92 93 97 85 69 93 80 88 79 81 82 88 83 80 90 84 84 83 80 74 74 75 78 79 77
72 85 96 100 94 80 86 94 94 91 91 77 76 85 94 71 92 78 67 93 90 93 97 93 91 88 86 72 75 76 78 78 77 78 80 81 82 84 84 79 77 76 76 77
68 87 94 95 89 92 90 94 90 90 86 87 94 88 84 85 70 71 87 80 76 88 92 99 90 92 74 72 73 76 77 88 89 84 86 84 82 81 79 78 77 77 77 74
78 85 94 92 95 94 74 83 97 97 91 96 93 94 88 87 78 71 80 80 86 66 94 84 88 82 63 64 72 79 76 76 86 88 87 87 88 87 83 80 73 71 68 69
85 86 80 83 91 88 88 91 94 96 94 91 92 95 95 82 91 83 83 76 85 95 83 75 93 72 56 55 63 74 81 82 90 97 95 93 98 92 78 68 71 69 61 63
85 88 73 89 97 96 97 94 92 94 88 90 95 95 92 90 91 84 83 80 73 73 87 96 93 74 74 80 78 83 88 90 86 93 100 98 94 89 86 72 66 69 66 63
89 87 92 87 91 98 98 95 97 94 88 93 93 94 93 94 93 87 84 76 83 90 97 97 94 92 92 93 90 85 78 81 82 95 100 96 95 90 89 84 72 74 76 72
88 98 85 94 87 90 96 85 92 81 91 98 95 86 83 86 92 91 91 83 95 96 93 93 89 91 92 93 92 88 85 84 83 86 90 93 71 76 82 94 89 80 79 70

GFSNW_925_rhum_105.txt.gz
RH
99 69 56 45 50 44 76 83 95 65 84 93 77 95 62 51 52 55 65 74 73 73 72 98 95 97 98 75 63 55 48 81 89 78 60 79 87 86 85 98 97 97 94 77
96 67 55 42 47 55 68 86 89 66 85 97 94 58 55 53 52 55 55 76 56 53 92 97 91 77 74 73 60 66 61 80 91 77 65 67 79 73 75 85 99 98 96 75
95 68 55 39 43 55 71 79 89 82 89 73 63 61 46 60 50 55 64 74 51 59 75 71 90 80 76 75 73 53 53 60 74 92 84 67 73 62 65 74 98 98 93 66
94 63 53 40 46 33 64 76 90 72 89 73 58 58 43 46 61 52 51 72 54 62 89 90 94 97 78 70 74 74 74 79 62 68 65 56 57 59 62 84 98 96 84 68
92 64 48 43 36 36 60 64 67 63 59 46 49 63 48 45 47 50 60 59 62 59 86 81 90 95 92 95 76 96 84 72 60 76 64 60 60 53 53 71 94 87 75 56
75 58 44 41 27 35 62 57 56 56 58 49 58 60 48 52 47 43 49 52 66 57 72 67 64 64 80 98 81 85 85 91 84 96 82 58 77 68 52 83 88 64 83 50
71 57 40 45 24 33 46 45 52 58 51 51 58 49 46 50 48 54 48 45 63 59 58 66 69 72 76 96 96 83 73 71 78 98 83 95 80 60 54 54 83 60 53 48
67 50 44 36 26 40 49 46 50 56 48 51 51 50 49 45 51 58 54 50 51 57 68 86 94 84 90 78 77 84 90 84 96 98 97 75 66 70 73 64 79 70 46 42
62 48 42 35 29 43 47 49 45 57 54 60 44 53 49 70 65 61 54 51 52 57 77 84 92 86 77 94 97 83 87 89 93 93 97 96 79 72 63 59 90 73 64 61
64 49 40 35 38 51 35 49 47 48 75 71 59 68 69 63 68 72 63 60 74 63 80 77 80 78 60 84 79 92 88 89 93 93 96 84 64 66 63 80 94 74 70 62
58 60 40 39 37 44 29 64 61 49 84 72 61 62 66 67 74 80 70 81 81 84 69 63 60 60 68 73 66 68 80 88 97 86 86 90 64 69 82 81 68 76 76 66
58 50 47 28 41 48 34 62 54 43 78 76 62 65 64 63 65 78 80 83 79 84 92 79 74 61 60 67 97 68 89 77 83 78 83 60 71 74 72 74 77 77 78 71
63 55 43 31 54 45 39 50 44 45 80 81 72 71 65 59 64 66 85 80 71 74 80 83 81 85 80 62 90 79 66 61 77 70 68 65 76 77 78 77 73 73 73 74
57 58 40 45 56 48 41 49 59 52 75 82 74 63 66 67 64 65 68 72 65 72 79 70 85 84 80 78 73 78 72 66 72 89 77 75 80 77 75 79 72 72 75 75
90 59 49 51 47 49 49 55 57 62 61 82 80 64 64 62 66 75 67 66 74 84 90 75 77 82 88 79 79 85 67 73 86 85 75 76 81 76 87 83 81 75 73 80
91 76 62 45 52 53 36 55 41 55 54 85 91 68 60 72 73 71 69 65 74 81 89 93 84 65 73 82 89 90 82 81 79 86 81 76 71 69 69 74 74 72 76 76
92 78 50 65 63 49 84 75 76 64 65 81 86 82 65 69 66 71 77 65 75 76 81 88 87 77 73 73 84 88 78 81 75 81 84 79 81 82 75 72 70 70 72 73
83 69 81 66 54 60 72 83 75 58 62 82 93 95 84 69 91 82 79 85 81 80 72 76 82 73 85 90 90 80 78 79 75 75 74 80 77 72 71 70 72 71 76 75
85 78 71 60 64 82 83 67 56 56 76 92 92 91 96 74 85 66 89 86 94 84 84 67 73 72 94 79 89 86 90 87 86 79 85 78 77 76 73 74 74 75 79 80
82 75 78 97 100 69 65 68 90 91 88 86 90 87 95 84 87 69 76 94 97 96 88 73 94 91 90 85 85 85 82 83 87 86 87 86 86 84 82 79 77 80 82 80
72 93 99 100 90 76 87 95 91 96 91 83 85 90 93 78 90 80 69 87 93 94 90 88 97 74 92 84 80 81 81 82 82 83 84 86 88 91 91 87 82 80 78 80
68 84 93 95 88 96 88 94 90 93 87 93 91 92 91 92 76 78 86 73 75 74 89 91 76 90 81 79 76 78 80 77 78 86 89 89 89 89 87 89 85 80 80 77
77 86 96 91 98 94 73 81 96 98 94 97 92 95 92 89 81 78 76 76 90 78 92 74 91 87 78 76 76 76 78 77 76 77 80 88 89 90 89 89 89 86 88 80
86 88 95 88 92 90 84 83 88 94 94 88 90 98 93 88 91 79 93 86 88 75 90 88 95 83 65 61 65 70 69 77 86 82 84 92 94 98 98 83 77 88 72 65
90 89 68 96 94 99 99 96 96 97 84 90 93 95 90 95 92 93 87 78 89 88 86 94 95 75 75 80 79 86 89 89 94 86 86 90 100 99 93 84 69 66 69 66
93 89 95 93 93 99 98 96 96 94 90 92 90 96 94 98 94 90 90 91 91 85 98 97 96 93 94 94 91 86 85 86 87 88 81 90 98 97 94 88 88 68 74 82
91 100 92 94 89 90 97 90 95 85 88 93 93 76 74 91 97 98 95 91 89 97 98 98 93 91 92 95 94 84 83 88 86 83 80 86 93 81 82 88 81 88 96 96

GFSNW_925_rhum_108.txt.gz
RH
100 99 83 96 70 53 80 87 97 78 86 94 91 94 62 52 54 59 65 75 78 75 93 97 87 76 93 76 76 64 54 85 90 79 72 79 84 81 89 90 94 100 96 77
100 97 75 90 92 52 78 95 91 85 86 97 95 68 55 56 51 59 56 74 58 54 89 96 69 81 70 75 70 68 60 80 92 74 64 66 78 75 79 89 93 97 99 82
100 96 75 73 49 63 60 80 95 92 91 87 73 68 56 69 54 55 59 68 51 63 79 70 93 67 70 73 77 61 57 63 74 89 77 70 71 63 69 85 95 98 98 93
99 93 66 54 44 66 53 82 83 76 97 80 67 56 46 68 68 55 53 69 54 63 89 85 92 80 86 71 77 75 74 73 66 65 64 60 58 60 63 93 99 94 80 83
98 84 64 50 50 76 61 78 77 73 71 62 66 61 51 50 48 61 65 56 61 52 79 81 89 94 90 91 78 95 85 59 70 75 66 61 59 53 62 87 100 92 76 63
100 78 62 50 41 63 62 66 62 59 62 59 63 67 54 53 50 48 52 56 70 58 69 64 62 65 76 94 90 82 86 92 87 95 78 65 80 76 60 95 97 90 96 86
97 73 60 48 34 53 39 48 60 57 59 54 59 55 47 57 51 58 48 47 62 62 57 65 71 72 84 92 90 78 87 72 78 100 84 93 94 67 58 90 96 82 72 67
88 74 49 50 49 60 39 47 49 57 58 57 55 54 56 54 59 51 50 50 50 59 68 86 91 81 87 80 74 79 87 97 92 99 98 94 71 74 76 70 92 79 79 69
86 72 50 61 85 69 45 48 43 53 60 55 52 56 55 72 72 63 54 52 56 58 86 85 94 94 86 97 93 83 86 89 90 96 97 95 78 67 69 62 94 74 78 67
87 76 64 40 52 50 45 50 48 52 76 70 55 63 70 71 71 77 64 64 73 67 87 84 81 79 64 84 84 92 87 90 91 97 98 88 64 69 63 79 84 80 79 75
89 76 47 41 40 44 46 62 60 50 85 76 69 66 65 72 76 75 70 80 79 81 73 76 72 71 74 76 72 72 83 90 97 89 87 96 68 71 84 84 71 74 83 78
80 67 46 42 54 45 46 58 46 45 79 79 67 70 66 63 63 85 83 82 83 88 85 80 66 68 70 76 97 73 88 78 83 79 84 68 75 75 75 76 76 78 81 75
76 71 72 45 48 42 44 48 47 48 81 74 72 74 66 62 65 65 86 84 74 82 84 88 87 74 86 80 90 81 70 67 79 75 77 76 78 74 81 80 83 76 77 77
80 82 79 51 47 38 46 44 52 47 72 81 76 66 70 68 66 67 69 72 71 77 84 76 79 83 81 81 77 81 72 70 76 87 75 82 77 77 78 85 83 74 79 76
84 87 70 47 40 42 45 51 61 59 53 82 83 68 65 68 72 68 63 65 79 89 90 76 81 81 86 78 80 87 79 83 87 86 80 82 79 76 83 84 78 76 74 86
81 74 54 45 46 49 36 52 45 48 44 87 93 74 68 78 69 67 67 68 81 88 90 92 84 71 73 86 90 87 80 77 85 85 83 84 79 73 74 74 77 79 80 76
84 63 59 61 56 44 67 64 65 70 52 81 88 86 73 69 64 70 78 71 80 84 88 86 89 82 79 78 92 90 77 78 79 79 82 82 79 83 76 74 71 72 73 77
82 81 71 65 55 56 65 76 68 59 66 77 95 97 86 72 88 83 82 82 86 83 82 84 85 80 90 97 83 82 80 79 80 83 77 80 82 81 76 72 75 74 79 79
86 75 61 58 57 73 72 57 56 55 54 91 88 94 96 79 87 65 82 85 95 85 86 76 79 81 90 76 88 85 87 90 91 87 88 82 81 80 79 79 80 78 78 79
75 62 74 97 93 65 57 63 81 86 89 86 95 88 95 86 89 68 76 92 94 95 87 80 82 96 84 86 84 88 89 79 80 87 84 83 86 86 85 84 80 81 83 82
83 96 99 100 90 78 87 96 81 92 85 84 88 91 98 82 90 83 76 93 93 91 88 88 91 91 93 88 86 87 84 82 83 83 82 82 84 88 93 94 87 87 85 85
74 88 94 92 90 94 83 91 93 93 76 97 92 94 91 92 83 91 86 88 78 90 87 92 80 85 86 86 81 83 86 81 78 75 77 80 88 88 88 87 88 89 85 83
78 88 98 90 97 88 82 84 97 97 98 99 98 98 94 91 82 91 83 80 91 74 90 75 85 88 85 83 82 81 80 81 80 82 78 78 86 89 90 90 88 87 91 94
85 92 96 90 98 93 85 83 86 91 94 88 92 99 93 88 91 73 90 84 87 82 84 88 93 88 81 73 69 70 62 68 77 82 84 84 79 84 94 98 96 91 90 87
91 90 73 99 90 99 99 97 95 95 80 88 93 94 91 99 95 93 85 84 98 92 90 90 96 82 73 79 78 84 91 94 94 82 86 89 85 92 95 90 94 91 71 70
95 90 98 93 96 99 98 96 94 91 89 90 89 96 94 99 94 95 95 90 92 84 93 96 95 94 94 94 90 85 83 83 87 87 87 88 82 85 95 94 92 91 79 72
95 100 94 95 94 94 98 88 94 85 82 87 90 66 66 92 98 98 94 91 87 92 100 98 94 90 92 94 92 87 77 84 90 90 86 76 75 85 92 91 86 93 82 80

GFSNW_925_rhum_111.txt.gz
RH
100 100 100 94 98 53 70 87 99 92 88 94 95 92 65 52 48 61 72 80 82 76 94 77 82 82 85 76 80 77 63 84 86 82 70 81 81 86 88 87 93 99 96 82
99 100 98 94 92 58 76 92 96 96 91 96 96 73 58 57 50 51 62 80 58 61 85 92 75 80 71 76 73 87 74 78 90 73 61 61 78 72 83 88 88 98 95 91
87 92 98 92 66 64 61 87 96 90 92 88 78 73 63 65 61 49 58 63 54 66 83 74 84 73 74 73 81 63 60 65 70 89 75 71 73 67 69 85 96 98 98 96
99 100 96 90 40 67 49 76 84 81 97 93 77 57 58 73 71 57 52 61 56 63 91 81 91 75 88 74 77 77 74 65 68 63 65 65 60 63 66 96 91 92 98 97
100 98 84 71 64 71 53 78 82 76 80 73 70 55 54 67 53 66 67 62 58 49 78 80 89 90 87 92 74 93 83 59 84 85 66 61 56 62 85 94 90 84 85 95
100 90 86 57 64 70 62 67 59 64 70 65 62 72 56 53 53 54 58 63 69 63 71 64 64 67 79 92 92 80 88 89 88 98 79 63 89 91 80 90 87 85 96 82
98 96 84 64 58 58 47 55 58 56 64 58 60 58 49 57 54 61 49 59 67 65 58 67 70 72 87 88 89 80 93 77 81 97 92 93 90 78 76 90 91 90 81 73
99 83 87 77 61 51 49 54 49 57 66 61 56 55 60 63 57 51 52 52 57 60 71 81 83 76 92 82 80 78 85 94 92 97 98 93 81 85 83 82 89 83 82 76
93 87 69 70 64 64 59 56 44 56 63 57 54 59 57 74 74 64 55 55 60 64 85 90 97 97 88 91 94 84 83 90 94 94 94 92 84 64 65 68 81 76 78 81
90 82 86 79 72 84 70 55 45 52 78 73 56 61 69 70 72 77 64 63 72 69 89 85 83 81 68 86 91 83 81 87 86 93 97 88 65 76 68 78 76 81 80 83
93 87 81 72 74 75 54 62 54 51 87 81 73 68 70 75 74 75 69 81 80 86 78 79 77 75 77 80 73 76 85 92 98 94 89 92 75 74 87 86 78 77 85 84
83 83 69 85 64 51 44 51 54 50 84 82 72 73 72 66 61 86 85 78 85 85 83 83 79 74 78 81 95 71 85 78 78 81 83 71 78 78 78 78 79 80 84 78
88 70 82 64 70 45 47 46 49 49 79 77 75 77 67 65 69 68 84 88 78 84 84 89 88 73 82 85 88 81 71 72 81 80 78 82 79 78 84 81 84 78 79 75
91 76 75 79 69 52 43 43 49 45 71 77 81 67 71 72 68 68 70 75 75 80 87 85 87 86 81 86 79 82 75 73 78 89 77 83 79 80 81 84 85 76 78 79
87 83 76 78 61 46 50 48 57 56 54 84 88 70 68 77 68 64 64 68 82 90 88 85 85 86 86 85 81 85 86 81 87 87 82 82 78 76 78 85 79 79 76 83
97 87 69 59 60 52 44 53 59 49 51 88 94 76 79 73 65 64 68 71 86 90 89 91 87 74 78 88 92 84 85 84 84 84 85 85 83 81 77 79 74 77 81 78
97 79 66 69 62 53 56 60 63 62 47 82 91 92 75 65 60 72 81 76 86 84 90 84 89 84 87 85 93 86 83 81 82 82 82 86 79 83 80 75 74 74 74 77
96 80 74 68 58 55 55 63 70 62 58 76 96 94 84 66 75 76 83 86 89 84 86 90 87 82 88 98 77 85 81 78 83 86 84 84 86 81 80 74 75 76 79 78
95 85 71 62 55 70 61 60 57 55 55 88 90 95 99 80 70 72 78 88 93 89 89 84 81 84 96 79 81 89 85 81 88 87 83 84 83 82 80 80 82 85 83 80
87 80 72 95 86 68 58 58 76 83 86 85 90 89 98 86 90 80 88 93 96 96 86 84 93 90 75 83 81 84 91 87 82 86 86 82 89 90 86 83 82 83 85 84
93 100 99 100 86 80 88 92 80 85 80 82 94 93 97 86 90 94 82 94 96 97 86 91 88 92 91 90 90 89 88 84 82 81 82 84 83 86 87 87 88 88 86 86
90 88 92 87 94 97 88 86 93 90 71 97 93 93 92 93 84 90 91 90 89 95 87 91 94 83 86 92 86 88 88 85 80 78 81 80 80 81 84 84 85 88 89 89
82 89 95 96 96 91 77 77 99 96 97 98 98 98 94 92 83 93 90 87 93 80 94 85 86 85 90 87 86 86 84 84 83 81 80 81 82 76 75 88 92 91 90 89
91 96 98 96 99 92 84 81 85 90 94 89 94 100 93 89 90 92 86 82 90 82 86 89 91 88 89 86 78 68 60 63 72 77 76 80 82 88 83 85 86 97 98 95
96 93 67 98 88 96 97 98 93 95 78 85 94 95 90 99 94 93 89 92 100 90 91 90 95 87 84 79 76 82 88 91 94 84 88 86 84 89 88 80 85 87 96 95
94 94 99 95 94 100 99 96 94 85 74 88 88 95 91 98 93 98 93 88 88 81 92 95 95 89 92 93 88 82 77 77 83 87 90 91 91 90 87 82 79 87 94 96
96 99 92 96 96 95 98 86 89 72 62 77 88 58 59 93 100 95 95 86 83 88 100 98 93 88 93 96 94 88 76 80 86 92 90 86 80 77 86 92 86 95 97 97

GFSNW_925_rhum_114.txt.gz
RH
100 99 99 96 86 71 71 91 98 99 93 93 96 94 72 49 53 62 78 77 76 80 84 67 85 86 85 73 83 82 66 88 90 82 64 77 86 92 93 91 93 97 94 83
100 86 100 95 90 75 76 96 97 96 92 98 97 76 64 56 51 60 77 72 60 65 81 84 78 83 70 77 79 90 81 82 88 72 59 64 74 70 82 88 88 97 93 87
100 98 89 77 88 77 60 84 99 91 97 83 81 72 71 67 62 47 60 57 58 67 80 71 68 80 75 74 81 65 59 68 70 87 75 73 76 71 82 85 92 97 98 95
100 96 87 88 73 80 58 74 88 80 92 91 84 62 67 75 73 58 54 57 56 69 87 78 91 65 83 76 77 78 70 67 73 66 64 64 62 78 92 90 86 92 98 98
100 100 93 83 80 78 52 74 83 81 86 86 69 56 63 73 60 66 66 65 54 63 85 84 88 86 85 84 73 94 82 68 84 91 66 62 86 84 90 88 94 91 98 97
95 88 79 79 86 77 58 70 60 66 73 70 72 65 59 60 58 54 61 64 64 77 72 65 65 71 85 91 84 79 85 87 88 99 81 64 85 98 92 87 83 86 93 80
92 80 82 70 69 81 44 60 56 62 66 64 57 58 50 60 55 63 52 62 64 66 59 67 68 81 85 85 83 83 90 86 87 98 81 93 96 84 79 87 84 90 82 79
90 84 82 70 60 74 44 55 54 60 67 62 57 55 68 62 58 56 55 56 63 62 73 76 79 74 88 86 80 77 84 92 93 96 85 93 87 86 88 86 92 84 89 84
90 85 81 84 82 73 49 56 50 57 66 60 57 61 58 71 70 62 60 58 62 67 88 77 92 97 85 85 88 83 82 89 90 92 92 92 84 64 67 74 84 80 84 87
88 92 95 78 63 74 67 56 51 55 78 77 60 62 63 70 69 72 65 64 73 71 87 88 89 81 72 88 89 72 73 83 76 88 93 88 66 82 76 80 74 82 85 88
91 94 78 70 78 74 66 56 58 51 90 84 78 71 72 74 74 75 69 82 80 88 80 80 80 77 78 82 75 81 88 95 96 94 88 89 81 76 84 84 78 80 87 86
84 81 78 77 55 78 53 52 56 55 84 84 77 77 75 70 63 84 86 80 84 83 83 84 81 76 82 81 94 74 83 79 83 81 77 73 82 82 81 80 82 87 88 87
99 83 82 63 68 65 55 47 51 50 79 76 76 78 69 72 71 69 82 88 80 85 83 88 86 72 81 87 88 81 73 76 84 83 78 85 78 83 84 86 83 78 80 84
99 89 71 70 75 65 46 42 45 44 70 73 81 69 71 75 68 70 69 74 78 82 88 86 88 84 83 86 78 82 78 75 80 85 80 85 80 81 84 82 80 79 77 80
99 89 64 73 76 57 50 42 49 57 55 86 87 72 77 72 63 66 68 70 82 88 85 86 85 89 87 90 83 88 86 81 88 88 80 83 78 76 79 85 83 84 85 79
100 94 80 68 66 58 48 64 61 53 52 88 90 77 80 69 63 66 71 74 87 90 88 90 88 78 83 88 90 74 86 85 80 84 84 85 80 82 77 80 76 76 76 83
100 97 85 78 67 65 56 61 61 55 49 82 91 90 73 70 64 79 82 79 89 84 90 84 89 84 86 87 91 72 88 90 87 82 83 89 81 85 77 78 75 75 75 76
100 100 93 90 75 63 55 67 74 61 55 75 94 93 83 65 76 84 87 88 89 85 88 91 88 85 89 97 77 88 85 88 88 86 83 82 84 85 82 78 80 82 82 79
100 100 92 90 71 68 56 66 60 60 59 89 86 92 97 82 80 83 86 88 91 91 90 87 84 86 97 81 79 91 88 80 82 88 82 84 86 88 88 86 86 84 84 82
100 95 99 100 90 72 64 61 76 83 86 83 86 87 92 80 83 85 90 94 97 97 87 88 97 91 73 73 75 82 87 89 90 86 87 85 88 90 89 84 85 85 84 84
96 100 100 100 87 82 90 90 77 85 80 86 93 92 95 86 90 94 85 95 97 99 87 92 93 94 87 87 90 89 89 87 84 79 82 84 86 92 93 90 85 84 84 86
96 97 99 93 97 97 92 90 91 88 69 98 95 95 91 94 84 90 93 90 93 92 87 95 96 86 83 94 93 92 90 88 86 83 81 82 84 85 91 92 92 92 90 88
98 99 100 99 99 99 75 78 99 98 97 98 98 98 94 95 83 94 90 88 94 84 96 86 87 82 94 91 90 91 88 84 83 79 74 74 77 74 80 84 79 84 92 88
100 98 98 97 99 95 89 81 82 88 92 90 90 99 92 88 91 90 86 81 92 90 96 88 91 87 94 91 88 84 79 72 67 70 72 75 80 81 78 82 83 86 98 85
99 99 96 98 92 96 97 97 94 96 78 84 91 94 89 100 96 88 91 95 99 92 88 88 93 90 91 90 79 79 85 92 92 87 90 88 88 92 92 83 84 85 92 93
99 98 98 92 96 100 99 98 94 85 74 88 87 93 89 96 93 99 94 89 88 76 92 93 97 92 88 86 85 82 75 76 81 86 91 93 92 91 87 82 76 84 95 96
97 97 93 92 97 94 95 87 86 63 53 77 85 55 58 93 99 92 92 84 78 88 97 96 93 84 89 94 93 90 80 81 87 94 94 94 89 87 86 94 85 86 91 96

GFSNW_925_rhum_117.txt.gz
RH
89 87 98 92 72 68 64 91 99 100 92 93 94 96 71 50 65 64 80 73 73 82 74 83 91 91 84 72 86 90 77 89 92 73 63 71 96 93 94 90 93 93 89 97
94 94 92 91 77 65 76 98 98 100 90 97 98 78 67 50 51 66 72 67 62 66 75 87 79 85 68 79 83 94 83 79 86 71 57 62 76 68 84 83 82 98 92 97
84 84 81 92 79 70 59 90 96 97 97 78 80 73 73 65 58 47 60 59 60 68 73 70 78 81 74 78 80 67 59 69 71 88 80 72 79 87 79 81 89 91 98 95
81 85 88 83 78 68 50 76 93 83 97 92 84 67 67 75 70 60 59 56 62 71 80 81 89 71 82 71 75 77 62 86 80 73 70 64 89 94 82 94 91 92 95 94
85 82 85 85 78 64 54 74 83 82 88 87 76 61 69 74 65 65 66 62 67 71 86 83 89 88 85 74 75 92 82 78 83 86 77 66 86 92 90 88 94 99 83 81
94 82 82 94 81 59 62 70 61 68 75 78 72 66 66 65 61 57 63 59 75 80 71 66 69 78 84 84 79 77 84 85 85 99 90 72 83 96 94 83 83 94 95 86
97 95 86 94 88 65 55 60 55 64 70 71 62 55 51 63 56 65 60 63 64 65 61 66 74 80 78 75 80 85 91 88 89 99 72 92 94 82 84 85 79 89 89 90
90 94 80 93 70 71 52 56 52 63 67 62 56 56 68 57 61 58 62 60 65 64 74 72 69 78 88 76 77 80 85 90 91 88 82 90 75 80 81 94 93 88 93 88
95 89 90 80 72 66 51 61 45 57 64 62 60 63 58 67 68 63 65 60 64 69 88 76 88 93 78 83 72 79 82 85 85 90 90 93 84 67 77 75 85 81 90 91
100 96 81 91 70 57 62 61 46 53 77 80 60 62 60 66 64 72 67 68 73 72 88 90 90 82 76 88 85 68 66 78 72 66 92 86 67 82 76 80 75 83 90 92
96 90 94 85 70 61 54 55 52 51 87 85 80 75 70 71 72 71 67 83 82 89 83 80 81 79 82 84 78 86 87 95 94 93 89 88 81 81 81 79 79 82 88 90
100 98 95 82 71 64 59 49 55 56 80 86 80 80 78 74 60 82 86 77 84 85 83 83 82 77 85 82 90 79 86 80 84 79 74 72 83 85 82 80 86 84 88 89
75 100 94 86 71 69 48 47 51 53 78 75 73 77 69 73 73 72 82 88 79 84 82 87 84 71 82 88 87 81 77 80 85 83 81 86 77 87 83 87 85 78 80 83
88 94 96 89 74 52 51 46 45 43 66 69 78 71 72 75 70 72 70 74 80 83 88 85 86 81 82 84 77 84 80 82 83 84 82 86 83 83 82 86 78 80 76 80
97 97 96 82 80 58 51 46 43 48 50 78 88 74 77 69 70 71 73 72 82 87 84 85 83 90 88 92 85 91 85 82 88 84 79 80 81 79 79 78 84 83 85 82
81 100 96 85 88 74 52 65 58 53 44 87 90 76 78 70 68 68 73 75 87 89 86 88 88 80 84 91 91 72 81 80 75 82 84 81 78 79 77 76 75 76 76 80
80 100 96 86 93 79 64 62 55 58 47 84 94 86 74 71 69 81 84 81 88 82 89 85 88 85 90 90 93 66 88 89 88 83 87 91 88 90 79 81 77 75 74 76
79 98 100 95 91 77 68 74 64 52 52 74 96 90 90 66 83 85 89 88 88 86 87 92 90 86 92 97 80 78 90 92 88 86 81 82 83 84 85 82 84 84 84 82
85 100 100 98 94 78 60 75 69 60 61 86 92 91 94 82 85 84 90 87 89 91 90 89 86 89 97 77 79 92 94 92 89 89 83 85 90 90 86 83 85 87 89 87
100 96 96 100 98 75 80 77 82 81 82 79 83 84 95 88 85 91 91 94 97 96 86 92 98 91 73 71 75 83 89 85 90 90 92 90 89 89 88 86 87 87 89 89
94 98 100 100 97 93 91 92 81 85 84 87 93 93 94 84 92 94 86 97 97 98 87 94 95 96 86 81 83 87 89 90 83 80 85 85 85 90 92 89 87 88 89 91
96 97 99 99 100 100 98 92 91 87 69 99 97 96 91 94 86 92 97 91 94 91 88 95 99 86 78 93 96 95 92 91 92 86 86 82 81 84 87 88 85 80 81 85
97 99 100 99 99 98 97 88 94 99 97 97 98 98 94 98 85 95 90 91 93 90 97 89 86 80 93 95 96 97 91 84 85 83 75 68 68 69 73 79 77 83 87 84
99 98 97 97 97 96 90 86 85 86 94 88 81 99 91 89 93 91 84 82 93 95 94 91 90 85 95 94 93 94 93 86 73 68 66 69 75 78 80 84 88 90 91 91
99 99 97 97 91 97 96 95 96 97 78 83 91 93 88 98 97 88 94 100 98 93 85 85 92 91 93 95 90 86 86 89 90 84 87 90 92 94 92 82 81 84 87 94
99 99 97 95 95 100 98 98 98 93 72 84 87 92 88 92 92 100 92 86 83 74 91 92 94 94 93 90 82 83 77 75 82 86 91 93 94 96 95 91 84 82 89 96
98 97 92 91 95 94 96 93 90 72 64 73 86 58 51 94 100 96 90 85 76 84 92 97 94 89 89 88 89 84 78 85 87 91 93 91 84 82 82 88 81 78 86 96

GFSNW_925_rhum_120.txt.gz
RH
86 93 96 86 79 71 67 90 99 100 89 82 80 80 62 56 59 59 65 58 63 61 60 81 82 87 86 61 71 76 61 76 75 57 46 55 98 88 78 86 87 86 87 98
72 76 71 72 69 60 74 97 98 98 93 93 85 64 60 54 50 58 59 57 56 56 61 72 65 70 57 65 64 74 61 57 70 56 46 50 82 73 68 74 79 94 89 98
82 84 72 65 65 60 60 72 99 92 88 70 69 62 60 54 51 50 51 55 50 50 57 54 60 56 65 66 68 65 51 56 61 76 81 79 89 74 64 64 84 86 98 93
92 88 72 67 60 48 44 62 85 75 91 71 70 62 60 60 58 52 50 51 54 57 59 64 66 60 62 60 67 58 49 66 60 60 57 63 78 85 80 93 88 92 92 92
93 75 76 80 65 46 61 58 73 65 70 70 70 55 63 62 63 59 58 57 61 56 66 65 66 73 65 69 64 76 66 67 62 56 56 56 72 77 68 76 83 75 69 76
98 86 90 77 54 41 58 67 60 49 73 73 64 54 62 60 56 56 58 56 58 60 65 60 61 58 57 60 69 66 72 65 62 73 59 56 64 95 97 95 92 88 96 90
91 92 97 96 76 41 46 60 51 44 65 63 57 49 49 58 54 60 58 54 55 59 57 62 64 62 60 59 61 69 72 71 67 76 53 74 70 70 84 98 95 89 76 71
94 94 93 100 91 69 39 51 49 46 62 51 50 49 56 53 51 55 58 57 57 57 68 65 61 59 66 57 57 59 64 65 69 71 73 70 67 68 72 77 98 80 75 68
96 93 90 86 75 64 46 45 44 46 46 49 47 49 52 54 54 54 60 57 58 63 74 72 77 72 66 66 60 56 63 61 64 70 73 68 65 66 67 67 77 74 69 70
95 92 92 90 73 70 50 48 46 50 52 60 52 45 49 49 53 53 58 61 62 65 70 77 70 62 68 66 68 63 59 62 64 59 71 61 57 70 68 67 74 78 74 73
95 99 94 90 86 70 67 51 51 55 61 72 71 63 54 56 52 54 58 66 69 72 76 66 60 60 63 68 64 68 64 72 76 72 70 70 71 71 68 69 73 79 83 78
83 98 98 98 88 84 74 49 52 56 65 71 81 79 74 70 55 54 72 68 75 66 63 60 57 56 64 62 58 66 71 58 59 59 54 67 74 72 71 71 76 76 79 76
97 79 99 99 92 77 76 51 52 53 64 66 67 68 72 76 76 70 63 67 66 70 66 58 58 60 54 57 58 64 64 63 65 67 64 72 68 71 71 72 73 69 70 74
94 93 93 100 90 80 66 54 48 47 54 55 64 72 71 75 72 74 72 68 75 70 66 65 64 61 60 56 58 63 54 65 62 65 65 71 69 65 65 73 70 70 68 70
91 84 99 98 95 83 61 54 48 46 57 53 73 75 76 68 71 75 76 73 68 67 68 65 65 68 74 71 69 65 59 58 59 49 49 56 60 66 69 68 70 70 70 70
92 94 100 98 96 80 64 66 53 54 54 74 75 71 74 72 70 71 70 71 68 66 64 61 65 68 72 72 67 48 53 56 51 52 59 61 63 65 68 65 66 66 67 70
90 89 100 98 91 83 63 59 63 68 56 68 86 80 69 71 72 76 71 75 69 64 66 69 66 70 76 73 71 45 54 59 67 65 68 75 72 70 68 68 71 72 70 72
90 84 100 100 100 86 74 64 61 64 57 62 89 83 80 69 74 73 79 72 72 69 62 74 71 73 78 84 56 56 67 72 74 72 69 67 70 70 74 76 74 75 75 72
86 86 100 99 94 87 73 69 68 59 72 77 75 81 85 71 74 73 84 75 71 78 70 67 70 64 82 56 54 61 79 77 74 75 72 73 72 76 76 73 73 73 71 70
94 97 95 99 98 81 80 74 78 78 75 73 68 66 84 74 77 80 82 84 79 88 69 74 79 66 53 53 54 53 73 71 72 81 85 80 82 79 78 75 72 72 71 72
100 99 100 100 98 93 95 95 82 74 74 71 67 72 86 75 80 82 74 87 86 90 72 80 78 74 64 59 60 64 71 69 69 64 63 65 64 71 73 72 70 72 70 68
95 96 98 99 100 100 98 94 81 78 68 81 86 83 74 80 74 82 91 87 91 81 77 90 89 64 62 67 66 73 71 70 73 72 74 73 67 67 65 66 66 66 71 75
98 99 100 100 99 98 96 96 89 91 87 90 91 90 82 89 80 85 85 93 87 77 92 76 55 59 71 76 81 83 77 77 77 73 68 67 66 67 64 60 69 76 78 79
100 99 98 97 96 90 89 80 78 74 86 87 79 93 81 76 87 82 85 74 84 92 94 82 57 66 77 81 82 84 85 78 72 62 58 57 60 66 76 81 84 86 81 80
99 100 96 96 80 87 85 79 83 87 78 78 86 90 80 88 89 77 88 97 96 81 75 71 66 75 85 90 88 84 83 82 82 77 80 82 84 87 88 86 88 88 89 90
100 100 97 91 92 98 97 96 90 84 76 80 89 92 89 80 81 97 89 78 74 70 84 78 83 91 89 89 84 78 71 67 69 77 83 86 90 91 92 90 85 80 83 91
100 98 84 84 88 88 91 85 84 71 65 85 87 76 58 84 89 82 80 80 71 72 76 79 82 90 90 87 83 79 74 76 76 82 85 85 86 89 84 82 83 82 89 95

GFSNW_925_rhum_123.txt.gz
RH
97 86 99 98 73 73 69 77 96 87 90 73 60 62 54 53 48 48 50 47 49 47 46 73 76 88 84 50 54 64 51 69 77 58 49 56 94 81 65 89 92 92 92 97
92 97 100 97 79 77 75 89 93 80 88 81 60 52 48 45 46 50 46 48 47 44 48 61 48 53 44 49 54 58 51 54 74 62 51 48 98 71 67 77 94 97 87 97
75 70 69 76 72 58 60 59 92 71 63 51 49 49 50 50 44 45 44 46 42 42 46 41 48 44 56 53 56 61 52 48 57 76 78 90 94 82 72 81 94 88 98 98
76 73 75 72 60 48 55 50 71 58 80 56 54 52 48 52 52 44 42 46 46 49 52 46 46 47 51 53 55 46 48 55 50 53 59 78 68 79 73 94 98 95 100 100
89 76 78 61 44 42 51 48 60 51 52 51 53 55 54 53 55 51 51 51 48 47 56 52 58 54 50 56 55 74 57 54 50 50 48 52 65 73 74 90 83 70 67 94
91 89 80 66 64 50 45 53 51 38 63 53 48 44 51 52 50 52 50 48 48 53 58 49 47 44 46 52 60 60 63 60 54 70 46 47 60 78 92 85 80 88 98 78
98 90 83 76 78 70 55 56 44 38 52 48 49 47 48 53 51 54 50 47 49 54 48 51 49 47 48 46 47 53 61 57 54 70 46 68 61 56 71 84 75 68 64 57
97 91 86 85 84 63 64 59 51 38 44 42 45 44 46 50 48 52 51 51 51 50 57 56 58 49 51 48 46 46 49 54 59 65 62 59 60 57 62 66 76 61 62 57
93 92 85 78 62 59 65 61 54 45 40 43 37 43 44 45 44 53 55 51 50 56 62 61 67 60 54 52 48 44 48 48 57 57 66 59 55 59 58 57 74 61 60 62
98 99 88 86 77 55 61 70 49 53 39 44 40 38 46 40 43 45 52 54 58 57 60 68 59 49 55 55 53 50 49 52 56 52 61 50 50 58 57 72 84 65 67 64
82 89 99 94 88 80 62 69 50 57 45 49 55 49 44 44 42 45 52 56 58 61 69 57 50 49 46 55 48 51 53 54 56 56 56 61 57 60 64 64 67 72 75 68
91 81 98 94 92 89 70 58 50 50 58 64 75 70 71 65 57 41 56 61 63 53 58 51 46 46 46 47 44 52 58 48 50 50 51 58 61 58 58 56 61 69 71 71
88 91 86 100 98 91 77 55 48 58 54 54 60 58 67 71 73 72 52 52 57 60 56 52 47 54 42 43 43 45 48 48 53 56 46 56 60 57 57 55 58 60 64 65
95 93 91 87 100 94 73 57 49 49 44 50 52 66 65 72 73 75 69 61 63 60 55 57 56 54 47 41 48 51 41 53 50 50 51 55 56 54 54 61 58 60 60 61
86 86 86 92 98 95 68 57 52 46 38 54 49 63 66 71 71 72 71 65 61 59 60 59 59 52 61 53 58 51 44 44 50 38 36 45 43 51 54 59 60 60 60 62
80 84 98 98 99 91 66 65 78 62 59 64 66 58 64 67 68 68 66 64 60 57 57 51 50 58 64 59 53 34 33 33 33 39 40 43 48 52 56 56 57 58 58 60
82 88 100 99 99 89 65 64 68 66 50 57 68 63 62 63 64 65 64 65 60 60 58 62 54 60 68 63 58 28 36 40 44 48 56 64 61 63 59 56 59 66 61 64
82 94 89 100 99 88 81 77 63 60 55 52 85 70 68 63 64 64 64 64 62 62 57 58 60 61 66 74 43 32 39 43 50 53 54 49 53 57 61 63 64 64 64 63
80 96 98 99 95 84 78 74 66 60 68 74 70 76 74 62 63 61 68 64 66 63 63 55 57 50 77 51 34 37 47 56 60 59 62 64 65 65 66 65 66 66 63 62
83 96 99 100 99 87 82 94 82 73 70 70 73 50 78 65 65 67 67 69 72 86 63 60 68 59 43 38 37 33 46 54 59 74 78 70 69 70 67 65 60 63 63 57
99 99 99 100 98 94 98 100 97 76 82 67 62 56 85 70 74 74 63 80 78 89 67 76 73 67 54 38 38 40 48 57 60 56 56 56 55 61 63 66 61 56 53 49
92 96 98 98 99 99 100 90 80 83 73 60 78 72 68 82 68 75 82 84 85 84 68 82 83 54 50 49 42 46 54 60 59 56 57 57 57 59 54 47 50 52 55 58
98 99 100 100 99 100 94 91 89 82 75 82 82 84 80 87 81 75 82 93 87 61 86 74 53 51 58 55 56 59 61 61 60 61 60 53 54 52 50 50 54 59 62 66
99 99 99 96 94 88 84 77 81 66 79 87 76 87 82 85 92 87 92 68 76 89 87 79 56 53 61 62 67 71 72 71 69 62 56 54 51 53 59 63 69 70 69 71
100 100 95 96 74 79 85 76 72 74 77 76 83 86 80 91 94 87 83 92 92 70 67 74 72 61 68 79 82 81 83 84 79 71 72 68 67 72 76 79 80 77 77 79
100 100 99 83 89 93 91 91 91 78 73 72 82 86 92 86 87 90 87 73 73 74 82 89 83 84 86 88 83 81 77 70 68 68 72 76 81 85 86 91 87 84 84 88
100 100 90 76 86 87 84 80 75 66 72 81 82 88 71 83 85 81 71 80 77 80 74 82 84 90 91 89 86 81 71 66 63 66 68 71 76 78 75 75 82 86 89 90

GFSNW_925_rhum_126.txt.gz
RH
81 87 97 98 75 82 80 78 94 66 82 86 68 79 51 50 47 47 47 46 47 46 50 76 80 89 82 48 53 65 59 73 94 70 54 63 96 98 92 98 94 95 99 98
98 97 98 92 94 68 72 79 81 65 79 96 73 50 50 45 47 46 43 47 44 40 44 63 45 65 44 44 53 63 57 80 88 75 58 56 100 95 81 85 96 98 98 98
78 74 70 64 53 44 54 68 85 72 63 54 49 51 50 53 44 46 42 44 43 42 43 40 48 45 53 50 55 57 60 62 68 95 97 97 94 94 86 86 98 94 98 98
70 68 67 59 40 36 46 57 70 63 90 59 54 51 46 52 53 43 42 46 45 49 57 48 48 51 50 56 51 59 58 78 56 53 59 64 76 79 85 96 98 98 99 99
92 84 73 58 49 49 50 73 67 54 54 47 48 57 54 52 53 53 50 52 47 47 57 57 62 56 55 62 60 81 64 79 52 58 47 49 77 77 80 86 85 89 85 100
92 96 89 71 59 42 48 48 45 58 60 52 54 50 54 53 50 51 48 54 50 53 59 54 52 47 47 52 58 68 66 79 65 82 50 46 76 85 88 80 77 93 98 76
94 93 89 90 71 58 46 53 54 60 58 55 53 45 48 52 52 58 48 50 55 60 49 50 56 56 49 51 47 56 66 66 60 88 70 84 66 64 65 70 67 62 65 61
95 88 84 93 74 57 44 48 53 60 60 48 46 44 45 51 51 51 51 52 53 53 59 66 63 58 56 55 47 47 51 65 79 87 84 64 63 61 60 68 73 61 69 68
99 94 83 76 79 64 66 51 44 55 65 56 44 45 43 57 55 59 56 51 49 57 64 62 75 78 54 56 48 47 49 56 72 66 78 77 68 62 57 60 85 70 62 74
88 99 94 91 89 66 73 66 45 51 58 52 50 51 55 45 49 59 56 59 62 59 64 66 79 61 53 69 58 51 57 59 69 64 75 62 57 58 56 89 82 75 74 70
92 84 87 97 95 85 76 71 49 58 54 58 52 48 52 52 52 61 59 65 66 75 73 74 64 60 56 62 47 49 59 67 82 65 63 70 59 67 78 75 70 75 74 72
86 88 84 99 96 92 84 68 53 51 64 71 63 61 64 62 64 73 59 70 66 75 78 65 60 60 52 53 63 50 71 59 67 59 71 67 60 68 60 61 73 73 77 71
87 87 84 92 100 98 91 67 57 62 65 70 69 67 68 64 65 69 86 64 66 68 68 78 71 68 54 59 60 46 50 52 68 62 58 74 70 62 61 59 67 69 68 70
83 91 92 92 88 93 99 65 57 55 53 63 65 63 64 66 65 67 69 69 63 66 70 77 80 74 52 59 58 63 54 60 60 58 58 54 64 66 66 63 63 65 64 65
75 72 81 85 88 95 100 72 55 50 63 74 64 61 64 69 67 70 71 68 70 77 79 83 81 66 69 66 70 75 58 64 67 68 52 63 60 64 62 71 67 67 70 71
68 68 83 95 88 99 76 77 72 53 52 87 92 66 66 66 68 69 69 70 72 76 77 77 68 64 77 87 78 51 44 42 41 45 46 50 57 62 62 66 66 63 63 66
71 75 90 100 99 92 70 80 71 58 56 78 89 75 67 63 64 70 76 68 76 76 79 81 72 76 80 85 86 45 39 42 50 58 64 67 66 74 66 63 64 64 62 66
75 77 84 98 100 94 88 79 68 57 68 60 96 87 77 65 79 83 72 82 79 82 79 73 77 80 84 94 64 43 40 47 58 65 56 62 67 72 70 65 68 73 74 71
79 88 93 99 98 92 80 72 74 65 74 97 92 94 94 67 74 74 83 78 90 77 85 77 74 77 87 69 58 53 49 56 62 66 67 69 74 77 77 76 75 75 75 71
84 95 98 100 98 92 80 91 96 97 90 88 96 69 95 79 77 80 82 83 95 96 86 72 88 82 51 51 53 42 48 58 64 84 87 82 82 82 81 79 73 71 72 60
95 100 100 100 96 93 98 99 100 88 90 89 85 72 95 77 87 91 75 96 94 99 86 91 94 90 75 46 37 49 50 58 63 67 70 73 74 79 78 77 72 60 55 56
87 96 98 99 100 100 100 98 95 94 90 85 90 87 89 90 83 95 93 95 94 98 79 94 98 76 62 49 47 46 55 66 72 68 72 70 70 68 74 70 60 54 56 58
90 98 99 100 98 99 98 97 97 97 90 92 92 94 94 92 94 98 96 98 95 71 95 92 78 58 62 62 58 61 69 73 73 72 67 66 60 53 53 57 53 56 61 68
99 99 100 98 93 91 91 85 90 91 94 91 87 97 95 91 99 95 97 85 88 100 100 92 75 55 67 69 68 79 82 80 80 74 67 66 59 58 53 55 60 66 70 72
99 100 96 93 85 93 93 94 91 90 86 82 96 96 93 92 96 93 93 99 99 91 85 80 90 65 73 82 83 86 86 84 80 76 74 70 65 73 76 71 71 72 73 78
100 99 97 93 90 96 96 97 98 95 82 93 95 95 100 94 94 99 94 91 88 77 88 92 91 87 89 90 88 89 88 84 80 76 75 77 80 83 86 83 79 78 79 81
99 98 87 90 93 91 94 96 96 78 80 94 96 98 80 89 98 99 90 89 79 93 91 93 93 91 93 91 93 90 84 80 75 74 73 74 75 83 86 92 84 77 80 85

GFSNW_925_rhum_129.txt.gz
RH
89 94 84 71 71 54 63 73 95 50 68 87 90 87 53 48 59 52 49 49 52 51 68 81 88 83 72 56 53 73 70 85 99 74 62 79 100 100 100 99 96 96 99 97
84 78 78 69 49 44 56 88 86 57 72 91 85 56 55 55 51 50 47 52 49 41 46 66 58 75 56 58 56 70 65 84 94 74 61 66 99 98 88 87 99 97 97 98
80 74 67 59 44 42 48 82 92 87 83 72 61 56 56 57 47 49 45 47 46 48 48 43 49 48 57 54 56 56 62 76 77 94 94 98 84 94 96 89 98 98 98 98
78 77 70 66 51 45 53 80 83 72 93 75 63 61 52 56 59 48 44 50 52 54 62 61 59 57 58 57 53 60 68 92 58 61 69 72 78 82 84 98 99 98 99 99
91 93 86 74 59 48 50 77 81 76 72 63 62 61 59 56 55 61 57 57 53 58 65 66 70 62 61 67 62 83 73 87 65 67 56 67 80 79 86 80 87 100 93 100
94 96 92 86 71 41 50 52 55 70 68 70 69 66 59 59 53 53 51 58 65 69 65 60 60 65 61 57 61 73 74 86 82 88 65 62 75 81 83 77 71 86 99 94
88 92 91 88 67 56 51 49 61 74 68 69 61 52 54 58 57 65 52 58 66 62 60 61 62 68 70 61 62 64 72 77 74 88 74 85 62 66 62 74 67 70 78 74
93 95 87 79 71 60 50 51 58 74 74 64 56 48 48 56 54 57 60 57 57 60 68 74 74 72 63 67 62 62 68 72 87 86 94 66 67 69 68 76 76 70 84 82
91 99 97 88 86 61 66 65 54 68 72 60 49 51 45 66 68 71 57 52 52 61 73 78 82 86 58 63 56 53 55 65 83 79 82 84 62 66 61 64 89 78 77 88
79 84 86 93 93 84 73 70 55 68 66 61 50 56 58 55 62 74 65 61 66 64 83 82 90 73 56 73 65 68 69 73 85 82 84 72 60 64 60 86 76 81 80 84
67 73 74 89 97 90 81 72 54 54 75 65 55 49 55 56 66 73 69 71 72 84 83 86 80 70 65 62 59 55 65 78 87 76 71 72 69 71 83 73 79 82 78 81
69 72 77 88 98 92 90 70 63 50 74 68 63 57 58 56 57 74 71 77 74 83 89 84 82 69 68 65 71 56 64 64 67 67 69 66 69 65 65 74 82 79 79 77
66 68 78 83 99 99 95 83 60 56 79 75 75 71 60 59 59 57 71 80 75 78 78 85 86 80 71 71 71 53 56 59 64 62 56 75 71 66 64 68 75 79 79 77
62 72 76 82 80 85 92 88 66 52 69 71 61 63 64 60 66 66 69 70 68 71 83 84 89 86 63 71 62 71 59 62 66 69 58 59 73 74 70 70 75 74 70 72
55 67 65 76 79 84 94 94 79 54 56 78 78 64 66 67 68 70 72 73 77 86 86 89 89 84 76 80 79 90 68 68 68 64 59 62 64 76 72 76 76 76 76 75
53 65 73 88 88 97 100 78 73 69 55 89 92 71 72 68 68 72 76 77 82 85 88 88 86 71 76 91 92 66 64 57 53 46 51 58 52 73 74 75 75 75 76 76
58 64 85 97 98 97 74 85 68 64 57 82 90 86 74 66 69 76 78 72 81 86 86 90 84 80 77 92 83 58 53 51 51 51 64 66 70 77 76 72 72 68 72 71
63 71 88 97 100 93 84 72 67 56 59 69 93 91 79 67 87 89 83 86 87 86 86 85 81 82 87 96 71 58 44 43 64 73 60 66 73 79 77 75 75 81 83 82
76 79 95 99 98 97 88 81 78 65 69 95 95 95 88 77 86 87 87 88 95 83 90 88 82 83 94 71 66 64 63 59 68 75 71 80 79 82 84 81 83 85 87 82
80 94 98 100 99 96 84 88 96 98 96 98 100 89 97 87 88 90 94 92 97 99 84 79 90 85 61 54 48 48 56 57 69 82 84 86 87 84 85 83 84 85 83 74
93 100 98 100 95 91 98 97 100 99 98 97 95 90 95 86 90 95 90 97 96 100 81 81 94 95 75 56 52 43 52 58 64 59 64 76 75 82 85 87 83 75 66 66
80 94 98 96 99 100 100 98 93 99 92 93 95 90 85 87 88 96 98 99 96 98 82 97 100 72 61 64 59 51 55 60 70 77 78 84 80 79 80 80 72 62 57 59
89 96 99 98 99 99 99 98 98 99 94 95 94 96 93 95 93 98 99 100 97 79 94 93 87 52 54 62 62 59 63 67 76 83 78 80 81 77 74 69 59 57 61 63
99 99 99 97 99 92 90 88 89 87 94 95 95 99 93 93 98 98 99 89 93 99 96 92 65 54 55 63 67 78 85 84 83 83 83 81 75 71 65 60 57 62 76 73
99 99 94 93 84 94 90 91 93 95 91 89 95 97 94 95 99 91 97 97 99 96 84 81 87 72 67 71 74 83 88 89 86 81 78 76 69 67 70 58 60 64 72 77
100 99 98 93 93 97 99 98 93 97 89 96 93 98 99 99 96 98 96 96 91 72 89 90 94 86 91 91 85 88 87 84 83 76 74 72 73 74 79 73 71 71 73 79
99 98 86 90 94 89 91 96 95 88 84 89 96 100 84 89 100 100 94 91 80 83 92 93 93 88 89 92 94 92 88 87 79 74 71 73 75 79 87 91 85 78 76 77

GFSNW_925_rhum_135.txt.gz
RH
77 74 69 64 64 39 52 68 76 45 61 80 90 88 63 53 58 52 52 54 57 60 61 84 92 82 75 54 57 72 68 88 97 75 58 82 94 100 100 99 92 96 98 92
75 71 70 71 70 48 55 86 85 52 53 87 87 59 56 54 56 54 53 56 52 51 52 66 64 68 56 60 60 68 62 87 96 75 61 69 88 86 100 96 100 96 97 96
76 74 80 76 74 46 55 83 81 78 81 80 63 59 58 57 48 50 51 52 51 57 59 52 52 57 52 54 57 56 68 82 83 91 77 80 93 82 84 100 98 97 98 98
86 87 85 80 73 44 54 86 82 78 84 73 65 62 58 61 63 53 56 55 64 64 69 71 64 64 65 60 57 66 71 91 82 77 71 75 84 81 80 99 100 98 98 99
88 87 82 78 65 44 48 72 76 79 79 75 61 64 63 63 59 60 62 64 64 63 67 69 77 73 68 70 66 89 79 92 88 87 65 68 83 72 76 78 89 90 93 98
91 86 80 68 58 36 42 64 69 68 70 72 70 68 62 64 57 56 55 59 67 70 69 67 68 68 69 70 74 74 82 92 92 96 74 71 71 69 76 79 79 90 97 89
89 91 79 79 67 49 39 53 63 72 64 76 69 60 56 61 62 64 58 58 65 58 61 69 72 84 85 84 85 73 76 83 87 97 80 62 47 63 66 76 74 71 82 79
77 98 96 86 82 65 59 52 55 74 69 71 62 52 55 58 59 63 60 56 56 63 68 76 75 74 63 66 78 88 76 79 94 98 98 70 54 71 75 78 73 71 83 81
60 86 99 97 91 84 68 64 56 66 67 53 48 54 51 65 70 68 61 54 56 66 83 80 77 87 64 63 58 73 79 77 89 91 96 91 48 65 65 63 84 78 80 88
52 68 79 84 90 92 82 70 59 61 67 59 51 58 56 63 69 76 75 66 66 67 86 86 93 85 64 73 71 70 82 86 95 95 94 81 57 67 62 65 45 80 80 88
64 57 68 79 88 97 88 78 64 54 72 68 58 51 57 62 71 70 62 72 73 86 83 90 86 86 74 73 67 68 71 81 92 90 90 81 68 70 66 51 82 79 81 84
76 54 63 74 85 94 94 79 70 64 65 60 59 53 47 48 48 66 75 74 79 81 86 90 91 84 82 73 75 60 77 66 65 75 70 48 74 64 62 76 78 82 80 80
84 68 55 70 84 87 88 87 83 64 80 76 70 70 58 57 58 53 67 78 80 83 83 89 89 91 82 82 84 64 61 67 72 62 52 66 69 73 73 78 78 79 77 81
93 77 59 68 79 92 100 96 81 69 67 79 69 61 63 62 62 61 62 71 74 80 87 84 89 90 74 84 71 75 60 72 74 78 66 63 57 76 76 79 76 81 80 81
94 83 64 65 66 80 95 99 92 89 62 82 76 63 65 68 66 70 70 73 78 87 83 91 90 90 87 88 91 98 73 68 67 62 52 50 41 54 78 81 83 85 86 83
99 88 67 58 64 86 100 97 90 100 64 81 83 66 75 74 73 75 80 82 86 90 90 91 91 83 82 93 95 72 75 64 54 48 49 56 48 57 74 80 84 86 86 82
100 92 65 62 83 93 82 86 69 71 73 78 83 74 77 73 75 86 90 85 90 89 89 96 91 84 89 94 96 47 62 64 64 62 52 60 73 62 83 80 82 79 80 78
100 94 66 91 100 95 86 69 60 65 61 76 92 79 77 75 91 92 91 92 92 92 90 91 95 87 92 94 60 46 48 50 55 58 66 57 60 68 85 82 88 90 90 90
100 84 84 99 100 100 93 86 71 66 69 90 94 92 77 84 92 92 94 92 96 89 96 94 91 91 98 64 52 49 52 57 49 53 60 64 72 74 86 87 90 86 91 91
97 92 88 100 100 94 87 90 92 92 92 98 98 90 91 86 93 96 94 95 98 97 92 91 98 93 69 57 53 49 46 58 59 64 62 74 84 82 89 86 83 81 85 88
98 99 100 100 99 92 94 100 99 99 100 98 94 85 94 86 90 93 91 96 98 98 81 94 93 95 83 55 56 54 55 56 61 55 49 54 66 72 83 87 85 84 86 86
96 97 98 99 100 100 100 98 99 99 93 92 98 97 79 90 87 90 97 98 88 99 82 99 98 83 68 61 59 60 58 61 63 60 58 58 71 80 81 82 87 86 85 83
96 98 100 100 99 98 98 98 99 99 96 97 98 99 90 98 93 95 95 99 95 84 97 93 90 71 64 62 70 67 68 68 74 75 66 67 75 79 83 89 84 86 84 79
99 98 98 97 98 94 90 84 86 90 93 94 94 100 93 92 99 92 99 90 92 97 97 95 79 62 54 70 74 78 75 80 85 88 84 85 87 90 84 83 86 83 83 78
99 99 95 97 87 95 90 89 92 95 85 87 94 97 94 100 95 95 95 94 96 95 87 83 83 57 67 68 67 77 84 86 90 94 95 94 92 92 91 85 81 79 79 76
99 99 99 94 93 99 98 87 97 94 83 86 90 99 99 94 94 97 96 97 98 84 90 87 91 87 83 80 69 80 90 92 91 87 87 90 92 91 86 80 78 78 76 75
99 98 90 84 90 78 85 91 89 78 72 86 93 98 82 94 100 99 94 94 83 82 82 85 86 82 79 81 89 91 94 94 89 82 81 83 85 85 84 87 82 77 72 66